ECMWFFLT1_250_spd_000.txt.gz
Wind_Speed
65 65 66 67 68 69 70 71 71 72 71 70 70 68 66 65 64 64 63 63 63 62 60 57 53 52 52 51 49 48 46 44 41 40 39 37 38 41 45 48 52 55 57 58 60 60 60 59 57 56 56 57 57 56 55 55 55 55 54 52 50 49 49
67 67 67 67 69 70 72 73 74 75 75 74 74 73 71 69 68 67 66 66 65 64 63 61 59 57 57 55 53 52 51 48 46 44 42 40 40 40 41 44 48 51 53 55 57 59 59 59 57 57 57 57 58 58 57 56 55 55 56 56 55 53 52
70 70 70 69 70 70 72 74 75 76 77 78 77 77 76 74 73 71 70 69 68 67 66 65 64 63 62 60 58 55 54 53 51 48 46 45 44 41 40 39 41 46 50 52 54 57 59 59 59 59 58 57 58 58 57 57 55 53 54 56 57 57 56
71 72 72 72 72 72 72 74 76 77 79 80 81 81 80 79 78 76 74 72 71 70 68 68 67 67 66 64 61 59 58 56 54 53 52 50 46 44 43 40 38 39 44 48 51 54 56 58 60 60 59 58 58 57 58 58 55 53 53 54 56 58 59
71 72 73 73 73 73 74 75 76 77 78 80 82 83 84 83 82 81 79 77 75 73 72 71 70 70 70 68 65 63 62 60 57 57 57 54 51 49 48 46 43 39 39 42 46 50 52 55 58 59 60 59 58 58 59 60 59 56 54 55 56 58 58
70 71 73 74 74 74 75 76 77 77 78 80 82 84 86 86 86 85 83 81 80 78 76 75 74 72 72 71 69 68 68 65 61 59 59 58 57 55 53 52 49 44 41 40 42 45 49 52 54 56 58 59 59 60 60 61 62 61 58 57 57 57 57
72 72 73 74 75 75 75 76 77 78 79 80 82 84 86 88 88 88 87 86 84 82 81 79 78 76 74 72 72 72 72 69 65 62 62 62 62 60 58 56 52 49 45 42 40 42 45 48 50 53 55 57 59 60 61 62 63 63 61 60 59 59 58
74 74 75 76 76 77 77 78 78 79 80 81 82 84 85 87 89 90 90 89 88 86 85 83 82 80 77 75 74 74 75 73 69 67 65 65 66 65 61 59 56 53 48 45 43 42 43 45 47 49 50 52 55 58 61 63 63 63 63 62 61 61 60
75 76 77 78 78 79 79 80 81 82 82 82 82 84 85 87 88 90 92 92 92 90 89 88 86 84 81 79 76 74 75 75 72 70 68 68 69 67 63 60 59 56 52 49 47 45 44 44 45 46 46 48 51 54 57 60 62 62 63 63 62 62 61
75 77 78 80 80 80 80 81 83 84 85 84 84 84 85 87 88 90 91 93 94 93 92 91 89 88 85 82 80 77 75 76 75 72 71 70 70 69 66 63 60 58 56 53 51 48 46 45 44 45 45 46 48 50 53 56 58 59 60 61 61 61 61
75 76 78 80 81 82 82 82 84 86 87 87 87 87 87 88 88 89 91 93 94 95 95 94 92 91 89 86 83 80 78 78 78 76 74 73 72 71 68 65 63 61 60 57 54 52 49 46 44 44 44 45 47 49 51 52 54 56 57 58 59 60 60
75 76 77 79 81 82 83 83 84 85 87 89 89 89 89 90 90 90 90 92 94 96 96 96 95 94 92 90 87 84 82 81 80 79 79 77 75 73 70 68 66 65 63 61 58 55 51 48 46 44 44 44 46 48 50 50 51 52 52 53 54 55 56
75 76 77 78 80 82 84 85 85 85 86 88 90 92 92 92 93 92 92 92 94 95 96 98 98 96 94 92 90 87 85 84 82 81 82 82 79 75 71 69 69 67 65 63 60 57 54 51 49 46 44 44 45 47 48 48 49 49 48 48 48 49 50
74 75 76 77 78 81 83 85 85 85 85 86 88 91 94 94 95 95 94 93 93 95 96 97 98 99 96 94 93 91 88 87 85 84 84 84 82 77 73 73 71 68 66 64 62 61 57 53 51 48 45 44 45 47 46 46 47 46 45 44 44 45 45
73 73 74 75 76 78 81 83 84 85 85 85 86 88 92 96 96 97 97 96 95 95 96 97 98 99 99 96 94 93 91 89 87 86 85 84 83 80 77 77 75 69 67 66 64 64 61 56 52 49 47 45 45 46 46 45 45 44 42 42 43 43 43
69 71 72 72 74 75 77 80 81 83 84 85 85 86 89 93 97 97 98 98 98 97 96 96 97 98 99 99 97 95 93 92 90 88 87 85 84 83 81 81 78 73 69 68 67 67 65 60 55 52 50 48 46 47 47 46 44 43 43 42 42 42 43
66 67 68 69 71 72 74 75 77 79 81 83 84 85 86 89 93 97 98 99 100 100 99 98 97 97 99 100 99 97 96 95 92 90 88 87 85 84 83 83 81 76 71 70 70 70 68 64 59 56 54 51 49 48 48 46 45 45 45 42 42 43 44
62 64 65 66 68 69 70 72 74 75 77 79 81 83 85 87 89 93 97 100 101 101 101 100 98 97 98 100 100 99 98 97 95 92 90 89 87 86 86 85 84 80 73 71 72 72 71 68 63 59 57 54 51 50 49 46 44 47 46 42 42 45 46
60 61 63 64 65 66 67 69 70 72 74 76 78 80 83 85 87 89 93 97 101 102 103 103 101 99 98 99 100 101 100 99 97 94 92 91 89 87 87 87 87 84 77 73 73 73 72 70 66 63 60 56 52 52 52 48 46 48 47 43 44 47 48
59 60 61 62 63 64 64 66 67 69 71 72 74 77 80 82 84 87 89 93 98 101 103 104 104 102 100 99 100 100 101 101 99 96 94 93 91 89 88 88 88 86 81 77 76 74 72 71 68 64 61 58 54 52 53 51 48 48 48 46 46 47 46
58 58 59 60 61 62 62 63 65 67 68 70 71 74 76 78 81 84 86 89 93 98 102 104 105 104 102 100 100 100 101 101 100 98 96 95 93 90 88 87 88 87 83 80 78 76 73 71 69 67 63 60 56 54 54 53 49 47 49 50 49 46 44
56 57 58 58 59 60 61 62 63 65 66 67 69 71 73 75 77 80 83 85 88 93 98 102 105 106 104 102 101 100 100 101 101 99 98 97 95 92 89 87 87 86 84 82 80 78 75 73 71 69 66 62 58 57 55 53 50 50 51 52 49 46 45
55 56 56 56 57 58 59 60 62 63 64 65 66 68 70 72 73 75 78 82 85 87 92 98 104 106 105 103 102 101 100 100 101 100 99 98 96 93 90 89 89 87 84 82 81 80 77 75 73 71 69 65 62 61 57 54 54 56 55 53 51 50 48
54 55 54 55 56 56 57 58 60 61 62 63 64 65 66 68 70 72 74 77 80 83 87 93 100 105 106 103 103 102 100 99 100 101 100 99 97 95 92 90 89 88 85 83 82 81 79 77 75 72 70 68 65 63 59 56 57 59 56 52 53 54 51
52 53 52 53 54 54 55 56 58 58 59 60 61 61 62 65 67 69 70 72 75 79 84 88 95 101 105 104 103 103 102 100 99 100 100 99 99 97 94 91 89 88 86 84 84 82 81 79 76 74 72 69 66 64 61 58 57 58 55 53 52 53 50
50 50 50 51 51 52 53 54 55 56 55 56 57 58 60 62 65 66 67 68 71 76 80 85 90 96 101 103 103 103 103 100 98 98 100 100 100 98 94 90 88 87 86 85 84 82 80 79 76 74 72 69 67 66 63 60 58 59 59 57 55 53 50
47 47 48 48 48 49 51 53 54 53 53 53 54 56 58 60 62 64 65 66 68 72 77 82 86 91 96 101 103 103 103 101 99 99 99 100 99 96 92 89 87 87 85 84 82 79 77 76 76 74 72 70 69 67 64 61 60 61 61 59 56 55 52
44 44 45 45 46 48 50 52 51 50 49 50 52 54 57 58 60 61 62 64 66 68 73 79 83 87 92 97 101 103 103 102 101 99 99 99 97 95 92 90 89 88 86 85 83 80 78 78 77 75 72 71 70 68 66 64 62 61 60 58 56 56 54
42 42 43 44 46 48 48 48 48 47 47 49 51 54 56 57 58 59 61 64 65 66 70 76 80 83 88 93 98 102 103 102 101 99 97 97 96 95 94 93 93 92 89 88 88 86 84 83 80 76 72 70 70 69 68 65 62 61 59 57 56 56 54
40 41 43 44 45 45 44 45 45 45 47 50 51 54 56 57 58 59 61 64 66 65 67 72 77 81 85 89 94 99 102 101 101 99 96 96 96 96 96 96 95 92 90 89 89 89 87 84 80 76 72 70 70 69 68 66 64 62 60 57 56 56 55
39 41 42 42 42 42 41 42 43 45 47 50 52 54 56 57 59 60 61 65 67 66 66 70 75 79 82 86 91 96 99 100 100 99 96 96 97 97 97 96 93 90 89 89 89 88 86 82 78 74 71 70 70 69 69 67 65 62 60 57 56 55 55
39 39 39 39 40 40 39 40 43 44 46 48 50 52 54 56 59 60 62 66 68 66 65 69 74 77 80 83 87 92 96 99 99 98 97 96 97 97 96 93 90 89 89 89 87 85 82 79 76 74 72 71 71 69 68 66 64 63 61 57 55 55 55
36 36 37 38 38 37 36 37 39 40 41 43 45 47 49 53 57 60 64 67 68 66 65 67 71 75 77 80 84 88 94 97 99 98 96 95 95 93 91 88 88 89 89 87 84 82 80 79 78 76 75 74 72 69 68 67 66 65 62 58 56 55 54
34 35 36 37 35 33 31 32 34 36 37 38 40 41 43 48 53 57 63 66 66 63 63 66 69 71 74 76 81 86 91 95 97 96 94 93 91 89 86 85 86 88 87 86 83 81 81 82 81 79 79 77 73 70 69 68 67 65 62 58 56 53 51
32 33 34 34 31 27 26 29 32 33 34 35 36 36 37 41 47 53 60 64 63 61 62 65 67 69 71 74 79 84 88 93 95 95 94 92 89 87 86 85 86 87 87 86 84 82 83 83 80 79 76 73 69 67 67 66 64 61 58 55 53 53 52
31 31 32 31 26 22 25 29 29 29 29 30 30 30 31 35 42 49 56 59 59 60 62 64 65 67 69 72 77 81 86 90 93 94 93 91 89 88 87 87 88 89 88 86 84 82 81 80 78 74 68 64 63 64 63 61 58 56 54 54 55 56 56
29 29 30 27 21 21 27 29 26 25 24 24 25 26 27 32 39 46 52 55 57 59 62 63 65 66 68 71 75 80 85 89 92 93 93 92 91 89 88 87 88 87 85 82 80 78 77 76 73 68 62 61 63 63 60 57 55 53 53 54 57 58 58

ECMWFFLT1_250_spd_003.txt.gz
Wind_Speed
60 60 60 60 60 60 62 62 63 63 64 64 64 64 62 63 62 59 57 59 59 56 54 53 52 54 55 53 55 57 53 48 45 43 44 43 41 41 40 39 41 42 43 45 47 49 52 54 56 57 58 59 57 56 54 53 53 52 52 52 52 51 50
62 62 62 62 62 62 63 64 65 65 66 67 67 67 66 65 65 64 60 60 61 61 59 58 57 59 59 58 59 58 53 51 49 46 47 46 44 43 41 40 40 40 40 41 44 46 49 52 53 55 57 58 58 57 56 55 54 53 52 52 52 51 51
65 65 64 64 63 64 64 65 66 67 68 69 69 69 69 69 68 67 65 63 64 65 65 63 63 63 63 63 62 58 54 53 53 50 48 50 49 46 43 41 40 41 41 41 42 44 46 49 50 52 54 56 57 57 56 56 55 54 53 53 53 52 51
67 67 67 66 65 65 66 66 66 68 69 70 71 71 72 72 71 71 70 68 67 69 70 69 69 68 68 67 65 61 58 56 56 55 51 52 52 49 46 44 43 43 43 42 42 41 43 45 47 49 51 53 54 54 55 55 55 54 54 53 53 53 51
67 68 69 69 68 68 68 68 68 69 70 71 73 74 74 74 74 73 73 73 71 71 73 74 74 73 72 70 67 64 62 60 59 58 55 54 55 53 50 48 47 46 45 43 42 41 42 43 45 46 48 50 50 51 53 54 54 54 54 53 54 53 52
66 67 69 70 70 71 71 71 70 70 70 71 73 74 76 76 76 76 75 76 76 75 75 76 78 77 75 73 70 68 65 63 62 61 59 58 59 58 56 53 50 48 47 46 44 43 42 42 42 43 44 46 47 48 50 52 53 54 54 54 54 54 53
66 67 68 69 70 71 73 73 73 73 73 72 73 74 76 77 78 78 78 78 78 79 78 78 79 80 79 77 75 72 69 67 66 65 62 61 62 62 62 59 55 51 50 48 47 45 43 42 41 40 40 41 42 44 47 49 51 52 53 54 54 54 54
66 67 67 68 69 70 72 74 75 75 75 75 75 75 76 77 78 79 80 81 80 81 81 81 81 81 81 80 79 77 74 72 71 69 67 66 65 65 66 64 60 58 56 52 49 47 45 45 43 41 39 38 38 40 42 45 47 49 51 52 52 52 53
66 67 67 67 68 69 70 72 74 75 76 77 77 77 77 78 79 80 81 82 83 83 83 84 84 84 83 82 81 80 78 75 74 74 73 71 69 68 68 67 65 65 63 58 54 51 49 48 47 45 43 41 40 40 40 41 44 46 48 49 49 50 50
66 66 67 68 68 68 69 70 71 73 75 77 78 79 79 79 80 81 82 83 84 85 85 85 86 87 86 85 84 82 80 78 77 76 76 75 73 72 71 70 69 69 69 64 59 56 53 52 51 49 48 45 44 42 41 41 42 43 45 45 45 46 46
65 66 67 69 70 70 71 71 71 72 73 74 76 78 79 80 81 82 83 84 86 86 87 87 87 88 89 89 88 86 84 82 80 79 79 78 77 75 74 73 72 72 73 71 65 60 57 56 54 52 51 49 48 46 45 44 42 42 43 43 43 42 42
66 67 68 69 71 72 73 73 74 74 74 74 76 77 79 80 81 82 83 85 87 88 88 89 90 90 90 91 91 90 88 86 84 82 81 80 80 78 75 74 73 73 75 77 71 63 61 59 57 56 54 53 52 50 49 47 45 43 43 42 41 41 40
68 68 69 70 72 73 74 76 77 78 78 77 78 78 79 81 82 83 84 85 87 88 89 90 91 92 92 92 93 93 92 91 89 86 84 83 83 81 78 76 75 74 76 80 76 67 64 63 61 60 58 56 55 54 53 51 47 45 44 42 40 39 39
70 71 72 72 74 75 76 77 79 81 82 82 81 81 81 82 83 84 85 86 87 89 90 91 93 93 94 94 94 94 95 94 93 90 88 87 86 84 81 79 77 77 79 82 79 72 69 67 65 64 62 60 58 57 56 54 50 47 46 43 40 38 39
72 74 75 76 77 78 78 79 81 82 84 85 85 85 85 85 85 85 87 88 89 90 91 92 93 94 95 95 95 95 96 96 96 94 93 91 90 88 85 83 81 79 81 83 82 77 73 72 70 68 66 64 62 60 58 56 53 51 48 44 41 40 40
75 76 78 79 80 81 81 81 82 84 86 87 88 88 88 88 88 88 88 89 91 92 93 94 94 95 95 96 97 97 97 97 97 97 96 95 94 92 90 86 84 82 82 83 82 80 78 75 74 72 69 68 66 63 60 58 55 54 51 47 44 42 41
77 78 79 81 82 83 83 83 84 85 87 88 89 90 90 91 92 91 91 91 92 93 95 95 95 96 96 97 97 98 98 98 98 98 98 98 98 96 93 90 87 85 84 82 82 81 80 78 77 75 72 71 69 65 63 60 58 57 53 50 47 45 42
79 79 80 81 82 83 83 84 84 84 86 88 90 91 91 92 93 94 94 94 94 94 96 97 97 97 97 98 98 98 98 98 98 99 99 100 100 99 97 93 91 89 87 84 81 81 82 80 79 77 74 73 72 68 65 64 61 59 56 53 51 48 44
78 79 80 81 81 81 82 83 83 83 84 86 88 90 91 92 93 94 95 96 96 96 96 98 98 98 98 99 99 100 99 99 99 99 100 100 101 101 99 97 95 92 90 86 82 82 85 83 80 78 77 76 74 72 69 66 64 61 58 56 54 52 49
77 78 79 79 80 80 80 81 81 82 82 83 85 88 89 90 92 93 95 96 96 97 97 98 99 99 99 100 100 101 101 100 100 100 100 100 101 102 101 99 98 95 92 88 85 85 86 85 82 80 79 79 77 75 72 69 66 63 60 58 57 56 54
76 77 77 78 78 78 79 80 80 80 80 80 82 84 86 87 89 91 93 94 95 96 97 97 98 99 100 101 102 103 103 102 101 101 100 101 101 102 101 101 99 98 94 90 87 87 87 86 84 82 82 82 80 77 74 71 69 65 62 61 60 59 58
76 76 76 76 76 76 78 79 80 79 78 78 79 81 82 84 86 88 89 91 93 94 95 97 98 99 100 101 102 103 104 104 103 102 101 101 101 101 101 101 100 99 96 93 90 89 87 86 86 85 83 82 81 78 75 73 70 68 66 63 62 62 63
75 75 75 74 74 74 76 77 78 77 76 76 77 78 79 80 82 84 85 87 89 90 92 94 97 99 100 101 102 103 104 105 104 103 102 102 101 101 101 100 99 99 98 96 93 90 88 86 87 86 84 83 82 79 76 74 71 69 68 66 64 65 65
73 73 72 71 71 72 73 74 75 74 73 73 74 75 76 77 79 80 82 83 85 86 88 91 94 98 99 100 101 102 104 105 105 104 103 102 102 101 100 100 99 99 99 98 95 91 89 87 87 88 86 84 82 79 76 75 73 71 69 67 66 65 65
70 69 68 68 68 69 70 71 71 69 69 69 71 72 73 74 76 77 78 79 81 83 85 87 91 94 97 99 100 101 102 103 104 104 104 103 102 101 100 99 99 99 99 99 96 93 90 88 88 89 88 84 82 79 76 76 74 72 70 69 67 65 64
66 66 65 65 66 66 66 66 65 64 64 66 67 68 69 71 72 73 74 75 77 79 81 84 87 89 92 96 98 99 101 102 102 103 104 104 103 102 100 99 99 99 99 99 97 94 91 90 90 91 89 85 81 78 77 76 75 72 71 70 68 65 63
63 63 63 62 63 63 62 61 60 59 60 62 63 65 66 67 68 70 71 72 74 75 77 80 82 84 87 90 94 97 99 100 100 101 102 104 104 102 101 99 98 98 99 99 98 95 93 92 92 92 90 86 82 79 77 76 74 73 72 71 68 66 65
60 61 60 60 60 59 57 56 55 55 57 59 60 61 62 63 65 66 68 69 71 72 74 77 78 79 81 85 89 92 96 98 98 99 100 102 104 103 101 100 99 99 100 99 98 96 95 94 93 92 90 87 84 81 79 77 76 75 74 71 69 69 68
58 58 58 57 57 55 53 52 52 52 54 56 57 58 59 60 62 63 65 67 68 68 70 73 74 75 77 80 84 87 91 94 96 96 97 99 102 104 103 101 100 100 100 99 98 97 96 95 94 92 89 88 85 82 80 78 76 75 74 72 72 71 68
55 55 55 54 52 50 49 49 49 50 51 52 54 56 56 57 58 60 62 63 64 65 67 69 71 72 74 77 80 83 86 90 93 93 94 96 100 103 103 102 101 100 99 98 97 97 96 95 94 92 90 88 86 83 80 78 77 75 75 74 73 71 67
51 51 50 48 47 47 46 46 46 47 48 49 51 52 52 53 54 56 58 59 60 61 64 66 68 70 72 74 76 78 82 86 89 90 91 93 97 101 103 102 102 101 99 97 96 96 95 94 93 91 89 87 85 83 80 78 77 77 76 75 73 70 67
46 45 45 44 44 44 43 43 43 44 44 46 47 47 46 47 50 52 53 55 56 58 60 63 65 66 68 69 71 74 77 81 84 86 88 90 94 98 100 101 102 101 99 96 94 94 93 93 92 90 88 87 85 82 80 79 79 79 77 75 73 71 69
41 40 40 41 41 41 40 39 39 39 40 40 41 41 41 43 46 49 51 52 54 56 58 61 62 63 64 66 68 71 74 77 80 83 84 87 92 95 98 100 101 100 97 95 93 92 92 92 91 90 88 87 85 83 81 81 79 78 76 75 74 73 71
37 37 38 39 39 37 35 34 34 34 34 35 36 38 40 43 45 48 50 51 53 56 58 60 61 61 63 65 66 67 69 72 76 80 82 85 89 92 94 97 99 98 97 95 93 92 92 91 90 89 88 86 85 85 84 83 79 75 72 71 70 71 71
35 35 35 36 36 33 30 29 29 30 30 33 36 39 41 43 44 47 49 51 53 56 59 60 61 61 63 65 64 64 66 69 74 78 79 82 86 89 91 94 96 97 96 94 92 92 91 90 89 88 87 87 87 87 87 85 81 76 71 68 67 69 69
32 32 32 33 32 29 25 24 26 28 31 35 37 39 39 40 42 44 46 49 53 57 59 60 61 62 63 65 64 62 64 68 73 76 76 79 83 86 88 90 92 94 95 93 92 91 90 88 86 85 86 86 87 88 87 84 81 78 75 72 72 71 68
29 29 29 29 28 24 21 22 27 30 32 35 36 35 35 34 35 36 39 43 48 54 58 59 60 62 64 66 65 62 63 68 72 72 72 76 80 83 84 86 89 92 93 92 92 91 88 86 84 83 84 84 85 87 86 83 82 81 79 77 75 71 67

ECMWFFLT1_250_spd_006.txt.gz
Wind_Speed
53 53 53 53 53 54 55 55 56 56 57 58 58 59 61 61 60 62 64 60 57 57 59 58 57 57 57 55 52 49 46 44 44 43 42 42 43 45 45 42 41 40 37 36 37 38 40 43 44 45 47 47 47 47 49 50 51 51 52 52 51 51 50
56 55 55 55 55 56 56 57 57 58 59 59 60 61 62 64 63 62 64 66 63 59 59 60 59 58 58 57 55 53 51 50 50 49 47 45 47 50 49 44 44 44 41 38 37 36 37 39 40 41 43 44 45 46 47 48 48 49 49 49 49 49 49
58 58 58 58 58 57 58 58 59 60 60 61 61 62 63 64 66 66 65 66 67 64 62 61 60 59 60 59 57 56 55 55 56 54 51 49 50 51 50 47 47 47 45 42 39 38 37 37 36 37 37 39 41 42 43 45 46 47 47 47 47 47 48
61 60 60 60 60 60 59 60 60 61 61 62 63 63 64 65 67 68 68 67 68 68 66 64 62 60 61 61 60 59 58 57 57 56 53 52 53 53 52 50 50 50 49 45 42 40 38 37 36 35 35 36 37 38 40 41 43 44 45 46 46 47 47
64 64 63 62 62 62 62 62 62 62 62 63 64 64 65 66 67 69 70 70 69 69 69 68 65 62 62 63 62 60 60 58 56 55 53 53 54 55 54 52 52 52 52 49 46 42 39 38 37 35 33 33 34 36 38 40 41 43 44 45 45 46 47
66 66 66 65 65 65 64 64 64 64 64 64 65 66 66 67 69 70 71 72 72 72 72 72 70 66 64 65 65 62 60 59 57 55 56 55 55 57 57 54 54 54 55 53 49 45 43 41 39 37 35 33 32 34 37 38 40 41 42 43 43 44 46
64 65 66 66 67 67 67 67 66 66 66 66 66 67 68 69 70 71 72 73 74 75 74 74 74 72 68 66 68 66 62 61 59 58 59 59 59 61 60 57 56 57 57 55 52 48 46 45 43 41 40 37 35 35 36 37 39 39 40 41 41 42 43
63 63 64 65 65 66 67 68 68 68 68 68 68 68 68 70 71 72 73 74 76 77 77 77 77 77 74 70 70 71 68 65 64 63 62 62 63 65 64 59 58 59 58 57 56 53 50 49 47 46 44 41 39 39 38 38 38 38 39 40 39 39 40
64 63 64 64 65 65 66 67 68 69 70 70 70 70 70 71 72 73 74 75 77 77 78 79 79 80 79 76 73 73 74 71 68 67 67 66 66 67 67 63 61 61 60 60 59 57 55 53 51 50 48 45 43 43 41 40 39 38 38 37 37 36 36
65 65 65 65 66 66 66 67 68 69 70 71 72 72 72 72 73 74 75 76 77 78 79 80 81 81 82 81 79 76 77 77 74 72 71 72 71 71 70 68 64 63 63 64 63 61 60 59 57 54 51 48 47 46 44 42 41 40 37 36 36 34 34
65 66 66 66 66 67 67 68 69 69 70 71 72 73 74 74 74 75 76 77 78 79 80 81 82 83 83 84 84 81 80 81 81 78 76 77 77 76 75 72 68 65 65 66 66 65 64 64 63 59 54 52 51 48 47 45 44 43 40 39 38 37 36
66 66 67 67 67 68 68 69 70 71 71 71 72 74 75 76 77 77 78 79 79 80 81 82 83 84 84 85 86 86 84 84 84 84 82 81 81 81 79 76 71 68 66 66 67 67 67 67 67 63 59 58 55 51 49 48 47 46 44 44 44 42 42
67 67 68 68 68 69 69 70 71 71 72 73 73 74 76 78 79 80 80 81 81 82 83 84 84 84 85 86 86 88 88 87 87 87 87 86 85 84 82 78 75 72 69 68 68 67 67 67 68 67 65 63 60 57 54 52 51 49 48 49 48 47 47
69 69 69 69 70 70 71 71 71 72 72 73 74 75 76 77 79 81 82 83 84 84 85 85 86 86 86 86 87 88 90 90 90 89 90 90 89 88 85 82 80 77 74 72 70 70 69 68 70 71 69 66 64 62 60 57 55 54 52 52 51 51 50
71 71 71 71 71 72 72 72 72 72 73 74 75 76 76 77 78 79 81 83 85 86 87 87 87 88 88 88 89 89 90 91 92 92 92 92 92 92 90 88 85 82 81 78 74 73 73 72 73 74 73 69 66 65 64 62 61 59 57 56 56 56 53
72 72 72 72 73 73 73 73 73 73 74 74 75 76 77 78 78 79 80 81 84 86 87 88 88 88 89 90 90 91 91 92 92 94 94 95 95 94 94 93 90 88 87 83 80 77 76 76 77 77 75 72 70 69 68 67 66 63 61 60 61 60 57
73 73 73 74 74 75 75 75 75 75 75 76 77 77 78 79 80 80 80 81 82 84 85 87 88 89 90 91 92 92 93 94 94 94 95 96 97 97 96 95 94 93 92 88 85 82 80 79 79 78 76 74 72 72 72 71 70 67 65 64 64 63 61
75 75 75 76 77 77 77 77 77 77 78 78 79 79 79 80 81 81 82 82 83 84 85 86 87 88 89 90 91 93 94 95 96 96 96 96 97 98 98 97 97 97 96 93 90 87 84 83 81 79 78 76 74 74 74 73 72 70 67 67 67 66 64
77 77 78 78 79 80 80 80 80 80 81 81 81 81 81 82 82 83 84 84 84 85 86 86 87 88 89 90 91 92 94 95 97 97 98 98 98 99 99 100 100 100 99 97 94 91 89 87 85 81 80 80 77 77 77 76 75 72 68 68 69 68 67
79 80 80 81 81 82 82 82 82 83 83 83 84 84 84 84 84 85 86 86 87 87 87 87 87 88 89 91 92 93 94 95 96 98 98 99 99 99 100 100 101 102 101 99 97 96 94 92 89 85 83 82 80 79 80 79 78 74 70 70 71 70 68
82 82 83 83 84 84 84 84 85 85 85 86 86 86 87 87 87 88 88 89 89 89 89 89 89 90 91 92 93 94 95 96 96 97 98 99 100 100 100 101 101 102 102 101 100 100 98 95 93 90 87 84 82 81 81 81 79 75 71 71 72 71 70
85 85 85 85 86 86 86 86 87 87 87 88 88 89 89 89 90 90 91 91 91 91 91 91 92 93 94 94 95 95 96 97 97 97 98 99 99 100 101 101 101 101 102 102 102 102 101 99 97 94 91 87 86 86 85 83 80 76 73 73 73 71 71
87 87 87 88 88 88 88 89 89 89 89 89 90 90 91 91 92 93 93 93 93 93 93 93 94 96 97 97 97 97 98 98 98 98 98 99 99 100 100 101 102 102 102 102 102 103 103 101 99 97 95 92 90 90 89 86 82 79 76 75 74 72 71
89 89 89 90 91 91 91 91 91 91 91 91 91 91 92 92 93 94 94 95 95 95 94 94 96 98 99 100 100 100 100 100 100 99 99 99 100 100 100 101 102 102 102 102 102 102 102 102 101 99 98 96 94 93 91 88 85 81 78 77 76 74 73
88 88 90 91 91 92 92 92 92 92 91 91 91 91 91 92 92 93 94 94 95 95 94 95 96 98 100 101 101 101 102 103 102 101 101 101 101 101 101 101 102 103 102 102 102 102 102 101 101 101 100 99 97 95 92 90 87 84 80 78 77 76 75
85 86 87 88 89 89 90 90 90 89 88 88 87 88 88 88 89 90 91 91 92 92 92 93 94 96 98 99 100 101 102 103 104 104 103 103 103 103 102 102 102 103 103 102 102 102 101 101 100 101 101 100 99 97 94 92 91 87 84 81 79 78 78
80 80 81 83 84 84 84 84 84 83 83 82 82 83 83 84 84 85 86 86 86 87 87 89 91 92 94 96 98 99 99 101 102 103 104 104 104 104 104 103 102 102 103 103 102 101 101 100 100 100 101 100 100 98 96 94 94 91 87 83 82 81 80
73 74 75 76 76 76 76 76 76 76 75 75 76 77 78 79 80 80 81 81 80 80 82 84 87 88 89 91 93 94 95 96 98 100 101 103 104 104 104 104 103 103 103 103 103 102 101 100 100 100 100 99 99 99 98 97 95 93 88 84 82 82 81
67 68 69 69 69 69 69 69 69 69 69 69 70 71 72 73 74 75 74 74 74 75 77 80 83 83 84 86 89 90 90 91 92 94 96 98 101 103 103 104 104 103 103 102 102 102 101 101 100 100 100 99 98 99 99 97 95 93 88 85 83 82 81
63 64 64 63 63 62 61 62 62 62 62 62 63 64 65 67 68 68 68 68 69 70 73 76 78 79 80 82 83 84 84 85 86 88 91 94 97 99 101 102 102 103 102 101 101 101 102 102 101 100 100 99 98 98 98 96 95 93 89 86 83 82 81
60 60 59 58 58 57 57 57 56 56 55 55 56 57 59 60 62 62 62 63 64 65 68 71 73 74 75 76 77 78 78 79 81 83 86 89 92 94 96 98 99 100 101 101 100 101 102 103 102 101 99 97 96 96 96 95 94 93 90 86 83 82 79
57 56 55 55 54 54 53 52 51 49 48 48 50 53 53 54 55 55 55 57 58 59 62 65 67 68 69 69 70 72 73 74 76 79 82 85 87 89 91 93 95 97 99 99 99 100 100 101 102 101 98 96 95 95 94 93 93 91 89 86 84 82 79
52 51 51 51 51 50 48 47 45 44 44 44 46 48 49 48 49 49 49 50 52 53 56 59 61 61 62 62 64 66 68 69 72 76 79 81 83 84 86 89 91 93 95 97 98 98 98 99 100 100 98 95 94 94 93 92 91 90 89 87 85 83 81
46 46 47 47 47 45 43 42 41 41 41 42 43 44 44 43 43 44 44 45 47 49 51 54 55 55 56 57 59 62 64 66 70 73 76 77 79 80 82 84 86 89 91 94 96 96 96 96 97 98 97 95 94 94 93 91 90 90 89 88 85 83 83
41 42 43 43 41 39 38 37 38 38 38 38 38 39 39 39 39 40 41 42 45 47 48 50 52 52 53 55 58 60 62 65 69 71 73 74 74 75 77 80 82 85 88 90 93 93 94 94 95 95 96 96 95 94 92 90 90 90 89 87 85 83 84
38 39 39 37 36 35 34 34 34 34 34 34 34 35 36 36 37 39 40 42 44 46 47 49 50 51 52 55 57 59 61 65 67 69 69 70 71 73 75 78 80 82 83 86 88 90 91 92 92 92 93 95 96 94 92 90 90 90 89 87 84 84 85
35 35 34 33 32 31 31 30 29 30 31 32 34 35 35 35 36 38 39 41 43 45 46 47 49 50 52 54 56 58 60 63 64 66 67 68 69 72 74 76 78 79 79 81 84 85 87 88 88 88 90 93 95 93 91 90 89 89 87 85 84 85 84

ECMWFFLT1_250_spd_009.txt.gz
Wind_Speed
51 51 51 52 52 52 52 51 52 52 52 53 53 54 54 55 56 56 55 55 55 56 56 56 56 57 56 54 51 48 48 47 44 42 43 43 40 37 36 35 32 30 29 27 27 27 26 26 26 28 31 34 36 38 40 41 43 44 45 48 50 50 50
52 53 53 53 54 54 54 54 54 54 54 54 55 55 55 56 57 57 58 58 57 57 57 58 58 59 59 57 55 52 51 51 49 46 46 46 43 42 41 40 37 35 34 32 31 30 30 29 29 29 30 32 34 35 37 40 41 42 44 46 47 47 47
54 54 55 55 55 55 55 56 56 56 56 56 56 57 57 57 58 59 59 60 60 60 60 59 59 60 61 61 59 57 54 53 53 51 50 49 47 45 45 44 42 41 38 35 34 34 33 33 33 33 32 31 31 32 34 35 36 36 39 41 42 42 43
56 56 57 57 57 57 57 57 57 58 58 58 58 58 58 59 59 60 61 61 62 62 63 63 62 61 62 63 63 62 60 57 56 55 54 53 51 50 50 47 45 45 43 41 39 38 37 37 37 38 36 33 32 33 34 33 32 31 32 33 34 36 37
58 58 59 59 59 59 59 59 59 59 59 59 60 60 60 61 61 61 62 62 63 64 65 66 66 64 63 64 65 66 65 62 60 59 57 56 55 53 52 51 49 48 48 47 45 43 40 40 40 40 39 37 36 36 36 35 33 31 32 32 31 31 31
61 61 61 61 61 62 61 62 62 61 61 61 61 61 62 62 63 63 63 64 65 66 67 68 68 68 67 65 65 67 67 66 64 63 62 61 59 57 55 54 53 51 51 50 49 47 44 43 42 42 42 41 40 39 38 37 35 33 32 32 32 30 28
63 63 64 64 64 64 64 64 64 63 63 63 63 63 63 63 64 65 65 66 66 67 68 69 70 71 71 69 68 67 68 68 66 65 66 66 64 62 59 58 57 55 54 54 53 52 49 48 46 45 46 45 43 42 41 38 36 35 32 30 30 29 29
63 64 65 66 66 66 66 66 66 65 65 65 65 65 65 65 65 66 66 67 68 69 69 70 72 72 73 72 72 70 69 69 68 66 66 68 68 66 63 62 61 60 59 58 58 57 54 52 50 48 49 50 47 45 44 40 38 39 36 33 30 28 29
64 65 65 66 67 67 67 67 67 67 67 67 67 67 67 67 67 67 68 68 69 70 71 71 72 73 74 74 74 74 72 71 70 68 66 67 69 69 67 65 64 63 63 62 61 60 58 56 54 52 52 54 51 48 46 43 42 42 41 39 36 31 30
65 65 66 66 66 67 67 67 68 69 69 70 70 69 69 69 69 69 69 70 70 70 72 73 74 74 75 75 76 76 76 75 74 72 69 67 67 69 69 68 66 65 65 64 61 59 58 58 57 57 56 55 55 52 48 46 46 45 44 43 40 37 35
67 67 67 67 67 67 67 67 68 69 70 70 71 71 71 71 71 71 71 71 71 71 72 73 75 76 76 76 77 78 78 78 77 76 74 70 68 69 70 70 68 66 65 64 62 60 61 61 60 60 60 58 57 55 51 49 49 48 48 46 43 41 40
69 68 68 68 68 68 67 68 68 69 69 70 71 71 72 72 72 72 72 73 73 73 73 74 75 76 77 77 78 79 80 80 80 79 79 77 73 71 71 71 69 67 67 66 64 64 66 66 64 64 63 61 60 59 56 53 51 51 51 49 45 45 44
70 70 70 70 69 69 69 69 69 69 70 70 71 71 71 71 72 72 73 73 74 74 75 75 76 76 77 78 79 80 81 82 82 82 82 81 79 76 74 74 71 68 69 69 68 68 70 70 69 68 65 63 63 63 61 58 55 55 55 51 48 49 48
71 72 72 72 71 71 71 72 72 72 71 71 71 71 71 71 71 72 73 74 74 75 76 76 77 77 77 78 80 81 82 83 83 84 84 84 83 82 79 78 75 72 71 71 71 72 73 73 73 71 68 66 65 64 65 62 59 59 58 55 53 52 50
72 72 72 73 73 73 73 74 74 74 73 73 73 73 72 72 72 73 73 74 75 76 76 77 78 78 78 79 80 81 83 84 84 85 86 86 86 86 83 82 80 78 75 73 73 74 75 74 74 72 70 68 67 67 67 66 64 63 61 59 57 54 52
73 73 73 73 74 75 75 75 75 75 75 75 75 75 74 74 74 74 75 75 76 76 77 78 78 79 79 80 81 82 83 84 85 86 87 87 88 88 88 86 84 83 81 77 76 77 77 76 74 73 72 69 68 68 68 68 68 67 65 63 61 58 56
73 73 73 74 74 75 76 76 76 76 77 77 77 77 77 76 76 76 76 77 77 78 78 79 79 80 80 81 82 83 83 84 85 87 88 89 90 90 90 89 88 88 86 83 81 80 79 79 77 76 75 71 68 67 68 69 69 69 70 66 63 60 58
74 74 74 74 75 75 76 77 77 77 78 78 78 79 78 78 78 77 78 78 79 79 80 80 80 81 82 82 83 84 85 85 86 87 88 89 91 91 91 91 92 92 91 89 87 85 83 82 82 81 80 77 73 69 68 68 68 69 71 69 65 62 57
76 76 76 76 76 76 77 77 78 79 79 80 80 80 80 80 79 79 79 79 80 81 81 82 82 82 83 84 85 86 87 87 88 88 89 90 91 92 92 92 93 94 94 93 92 90 89 87 86 86 84 82 81 77 73 70 69 69 71 71 69 64 58
78 78 78 78 78 78 78 79 79 80 81 82 82 82 82 82 81 81 81 81 81 81 82 83 83 84 85 85 86 87 88 90 90 90 90 91 91 92 93 93 94 95 95 95 95 95 94 92 91 90 87 86 86 85 81 77 72 70 71 73 73 69 63
81 81 81 80 80 80 81 81 81 82 82 83 83 83 84 84 83 83 84 84 83 83 83 84 84 85 86 87 88 88 89 90 91 92 92 92 92 93 93 94 94 95 95 96 97 98 97 97 96 94 92 90 89 87 85 83 79 75 73 75 76 74 69
83 83 83 83 83 83 83 83 83 84 84 84 85 85 85 85 85 85 86 86 85 85 85 85 86 87 88 89 89 89 90 90 91 92 93 93 94 94 94 94 94 95 95 96 97 99 99 99 99 98 97 96 93 90 88 88 86 81 78 78 78 76 71
85 85 84 84 85 85 85 86 86 86 86 86 87 87 87 87 87 87 88 88 87 87 87 87 88 90 90 91 91 91 91 91 91 91 92 93 94 95 95 95 95 95 96 97 97 98 99 100 100 100 100 100 98 95 93 91 90 86 83 83 82 78 73
87 86 86 86 86 87 87 87 88 88 88 88 89 89 89 89 89 89 89 89 89 89 89 90 91 92 92 93 93 93 93 92 92 92 92 92 93 94 96 96 96 95 95 97 98 98 99 99 100 100 102 102 101 99 97 95 93 90 88 87 85 81 77
89 88 88 88 88 88 88 89 89 89 89 90 90 91 91 91 91 91 91 91 91 91 91 92 93 94 94 95 95 95 95 94 93 93 92 92 93 94 95 96 96 95 94 95 97 98 99 99 99 100 102 103 103 101 100 98 96 94 93 90 89 86 81
91 91 90 90 90 90 90 90 90 90 90 91 91 92 92 92 92 92 92 92 92 93 93 94 95 96 96 97 97 97 96 96 95 94 94 94 94 94 95 95 96 95 95 95 96 97 98 99 99 100 101 103 103 102 101 100 99 99 98 96 94 91 85
90 90 91 91 91 91 91 91 91 91 91 92 92 93 93 93 93 93 93 93 94 94 95 96 97 98 98 99 99 98 97 96 96 95 95 95 95 96 96 96 96 96 96 96 96 96 96 97 98 100 101 102 102 101 101 101 101 101 100 98 97 95 90
86 87 87 88 89 89 90 90 91 91 91 92 92 93 93 94 94 94 94 95 95 95 96 98 99 99 100 101 101 100 98 97 96 96 96 96 97 97 98 98 98 97 97 97 98 97 96 96 97 98 100 101 102 102 101 101 101 101 100 98 97 96 94
80 81 82 83 84 85 86 86 87 88 88 89 90 91 92 92 93 94 95 95 96 96 98 99 100 100 101 102 102 101 100 98 97 96 96 97 97 98 98 99 99 99 98 98 98 98 98 98 98 97 98 99 100 101 101 101 101 101 100 99 98 98 96
75 75 76 77 77 78 78 79 80 81 82 83 85 86 87 88 90 91 92 94 95 95 97 99 100 100 102 102 102 101 100 98 97 96 96 97 98 98 99 100 100 100 99 99 99 99 99 100 100 99 98 98 98 99 99 100 101 101 100 100 100 99 97
69 69 69 69 69 69 69 70 71 72 73 75 77 78 80 81 83 85 87 89 90 91 93 95 97 97 98 99 100 100 98 96 95 94 95 97 99 99 100 101 101 101 101 100 100 101 100 100 99 99 99 99 98 98 97 97 98 99 100 100 100 99 98
64 64 63 62 62 61 62 62 63 64 65 66 67 69 71 72 74 76 79 81 83 85 86 88 90 91 92 94 95 94 93 91 89 90 92 95 97 99 100 101 102 102 102 103 103 103 102 100 99 99 100 100 99 98 97 97 97 98 99 100 100 100 100
60 59 58 57 57 57 57 58 58 59 59 59 60 61 63 65 66 69 71 73 74 76 78 79 81 83 84 86 87 86 84 83 83 85 87 90 93 95 96 98 99 101 102 103 104 104 103 101 101 100 100 100 100 98 97 98 99 99 99 100 100 101 101
56 55 54 54 54 54 54 54 54 54 54 54 55 56 58 59 60 61 63 64 65 67 69 70 72 75 76 77 77 77 75 75 76 79 81 84 87 89 90 92 94 97 99 101 103 104 103 102 102 102 101 100 99 98 99 100 101 100 99 99 100 100 101
54 53 53 53 53 52 51 50 50 50 50 51 52 52 53 52 52 54 55 56 56 58 60 62 64 67 67 68 68 67 67 68 70 72 74 77 79 81 83 85 88 91 94 96 99 100 101 101 102 102 101 99 98 98 100 102 102 100 98 98 99 100 100
52 52 51 51 50 48 47 46 46 46 46 47 48 47 47 46 46 47 48 48 48 50 53 54 57 59 59 59 60 60 60 62 64 66 68 70 73 75 77 79 82 86 88 90 93 94 95 97 99 99 99 97 97 99 101 102 101 99 98 97 98 98 98
50 49 48 47 45 44 43 43 43 43 43 43 43 42 42 41 41 41 42 42 42 44 46 48 49 51 51 51 52 53 54 57 59 61 63 65 68 70 71 73 77 80 82 83 85 87 88 90 93 94 93 93 95 97 99 99 98 98 97 97 96 96 96

ECMWFFLT1_250_spd_012.txt.gz
Wind_Speed
45 46 47 48 48 49 50 50 51 51 50 50 50 51 52 52 52 52 53 54 55 55 54 53 53 55 55 54 53 53 51 50 50 49 47 41 37 39 39 37 37 37 34 34 36 38 38 37 36 36 35 36 36 37 38 38 39 39 39 38 39 40 39
47 48 48 49 50 50 51 52 52 52 52 52 52 52 53 54 54 54 54 55 56 56 56 55 54 54 56 57 56 55 54 53 53 53 52 47 42 42 41 40 42 40 36 35 36 38 38 38 37 37 37 36 34 34 33 32 33 35 36 37 38 38 38
49 50 50 51 51 52 52 53 53 53 53 54 54 54 54 55 55 55 55 56 56 57 58 57 56 56 56 58 59 58 57 56 55 55 55 51 47 45 45 45 45 43 41 40 38 38 38 38 38 38 37 35 34 34 31 28 26 27 29 31 31 32 32
52 52 52 53 53 53 54 54 55 55 55 55 55 56 56 56 57 58 58 58 58 58 59 59 58 58 58 58 59 60 60 58 58 58 58 55 52 50 49 48 48 48 47 45 43 42 40 39 37 37 36 36 35 33 31 30 28 26 26 27 26 26 27
54 54 54 55 55 55 56 56 56 57 57 57 57 57 58 58 59 59 60 60 60 60 60 60 60 60 60 60 59 60 61 62 60 60 60 59 56 55 54 52 51 51 51 49 48 46 45 42 39 38 39 38 37 35 33 34 33 30 30 29 28 28 28
55 56 56 57 57 57 57 58 58 58 59 59 59 60 60 60 60 61 61 62 62 62 62 62 62 61 62 62 62 61 62 63 64 63 62 62 61 59 58 56 54 54 54 54 53 50 48 46 43 42 42 41 40 38 36 37 36 35 34 34 33 31 30
56 57 57 58 59 59 59 59 59 60 60 61 61 62 62 62 62 63 63 63 63 64 64 64 64 63 63 63 64 64 64 64 65 66 65 65 63 62 61 61 58 56 56 57 57 55 52 50 48 46 46 45 44 42 40 40 38 37 37 37 36 33 32
58 58 58 59 59 60 61 61 61 62 62 62 63 63 64 64 64 64 65 65 65 66 66 66 66 66 65 64 65 66 66 66 66 67 68 68 67 65 64 64 62 60 59 59 60 59 56 54 52 50 49 48 48 45 43 43 40 39 39 39 37 35 35
60 61 60 61 61 61 62 62 63 63 64 64 65 65 66 65 65 65 66 66 67 67 68 68 68 68 67 67 66 67 68 69 68 68 69 70 71 70 68 66 65 64 62 61 62 62 60 58 56 54 52 51 51 49 47 46 44 41 41 41 39 38 38
63 63 63 63 63 63 63 63 64 64 65 66 67 67 67 67 67 67 67 68 68 69 69 70 70 70 70 69 69 69 69 70 71 70 70 70 72 73 72 70 68 67 66 65 65 64 63 63 60 57 55 54 53 52 51 51 49 46 44 44 42 41 39
65 65 65 65 66 66 65 65 65 65 66 67 68 69 69 69 69 69 69 69 70 70 70 71 72 72 72 72 71 71 71 71 72 72 73 72 72 73 74 74 73 71 69 69 68 67 66 66 64 62 60 58 57 56 55 54 53 50 48 47 45 44 42
68 68 67 67 67 67 67 67 67 67 67 68 69 69 70 71 71 71 71 72 72 72 72 72 72 73 73 73 74 74 74 73 73 73 74 75 74 74 74 75 75 74 73 72 71 70 69 68 66 66 65 62 61 60 59 58 56 54 54 52 49 49 46
71 71 70 70 69 69 69 69 69 69 69 69 69 70 71 72 72 72 73 74 74 74 74 73 73 73 74 74 75 76 76 76 75 75 76 76 77 77 76 76 76 76 76 74 74 73 72 70 69 68 68 66 64 64 63 62 59 59 60 58 55 53 51
72 72 73 73 72 72 71 71 71 71 72 71 71 71 72 72 73 73 74 74 75 76 76 76 75 75 75 75 76 77 77 78 78 77 77 77 78 79 79 78 78 78 77 76 75 75 75 75 74 72 71 69 68 67 67 65 63 63 63 63 61 57 55
74 74 74 74 74 74 73 73 73 73 73 73 73 74 74 74 74 74 75 75 76 76 77 77 77 77 76 76 77 78 78 79 79 80 80 79 80 81 81 80 80 80 80 78 77 76 76 77 77 77 75 73 72 70 70 69 66 66 66 67 66 61 58
75 75 75 75 75 75 75 74 74 74 74 74 75 75 76 76 76 76 76 76 76 76 77 78 78 78 78 78 78 79 79 80 80 81 81 81 82 82 82 82 82 82 82 81 80 79 78 77 77 78 78 76 75 73 72 71 70 69 68 69 69 64 60
74 75 76 76 76 76 76 75 75 75 76 76 76 76 77 78 78 78 77 77 77 77 77 78 78 78 79 79 80 80 80 81 81 81 82 83 83 83 83 83 83 84 84 83 82 82 81 80 78 77 77 77 76 75 74 73 72 73 72 70 71 68 63
74 74 75 76 76 76 76 76 76 77 77 77 77 77 77 78 79 79 80 80 79 78 78 78 79 79 79 80 80 81 81 82 82 82 82 83 83 84 84 84 84 85 85 85 84 84 84 84 82 79 78 77 77 77 76 75 73 74 75 72 72 72 68
75 75 76 76 75 76 76 76 77 77 77 77 77 77 77 78 78 79 81 82 82 81 80 79 79 79 80 81 81 81 82 82 82 82 83 83 83 84 84 84 85 85 86 85 86 86 86 86 85 83 81 80 79 77 76 75 74 74 75 75 75 74 72
78 77 77 77 76 76 76 76 76 76 76 77 77 77 77 77 78 79 80 82 83 83 82 81 81 81 82 82 82 82 82 82 82 82 82 83 83 84 84 84 85 85 86 86 86 87 87 88 88 87 85 83 82 80 78 77 75 73 72 74 76 77 74
81 80 79 79 78 78 78 78 77 77 77 77 77 77 77 78 78 79 80 81 82 83 84 84 83 83 83 84 84 83 83 82 82 82 82 83 83 83 83 84 84 85 86 87 87 88 88 89 89 89 88 87 86 84 82 81 79 76 74 73 74 76 76
85 84 83 82 81 81 80 80 79 79 79 79 79 79 79 79 79 80 81 81 82 82 84 85 85 86 86 85 85 84 84 84 83 83 83 83 83 83 83 83 84 84 85 86 87 88 89 89 89 90 90 90 89 88 87 86 84 81 79 77 75 75 76
88 87 86 85 84 84 83 83 82 82 82 82 81 81 81 81 81 81 81 81 82 83 84 85 86 88 88 87 87 86 85 85 85 85 84 84 84 84 84 84 84 84 85 85 86 87 88 90 90 90 90 91 90 90 90 89 89 87 85 82 80 78 76
90 89 88 88 87 87 86 86 85 85 84 84 84 84 83 83 83 83 82 83 83 83 84 86 87 89 89 89 88 87 87 87 86 86 86 86 86 86 85 85 84 84 84 85 86 87 88 89 90 90 90 91 91 91 91 91 91 91 90 88 86 84 79
91 90 90 89 89 88 88 88 87 87 87 86 86 86 86 86 85 85 84 84 84 85 86 87 89 90 90 90 89 89 88 88 88 87 87 87 87 87 87 86 85 85 85 85 86 86 87 88 89 90 91 91 91 91 91 91 92 93 93 92 90 89 86
93 92 92 91 90 90 89 89 89 88 88 88 87 88 88 87 87 87 86 86 86 87 87 89 90 91 91 91 91 90 89 89 89 88 88 88 88 88 88 87 87 86 85 86 87 87 87 87 89 90 91 91 92 92 91 91 92 93 94 94 93 91 91
92 92 92 92 91 91 91 90 90 90 90 89 89 89 89 88 88 88 87 88 88 88 89 91 92 92 92 92 92 91 90 90 89 89 89 89 89 89 88 88 87 87 86 87 87 88 88 88 89 90 90 91 91 92 92 92 93 93 94 94 94 93 93
89 89 90 90 89 89 89 90 90 91 90 90 91 91 90 89 89 89 88 88 88 89 90 92 93 94 94 94 94 93 92 91 90 90 90 90 89 89 89 88 88 88 88 88 88 88 89 89 90 90 90 91 91 92 93 93 94 94 94 94 94 94 95
85 85 85 85 85 85 85 86 87 87 87 87 88 88 87 87 87 88 88 88 88 89 90 92 93 94 95 96 96 95 94 93 92 91 91 91 90 89 89 89 89 89 89 89 90 90 91 91 91 90 90 91 91 91 92 92 94 96 96 94 93 93 95
80 81 81 81 81 81 81 81 82 82 82 83 83 83 82 82 82 83 84 85 85 87 89 91 93 94 95 96 96 96 95 94 93 92 92 91 91 91 90 90 90 90 90 90 92 93 93 93 92 91 90 90 90 91 91 92 93 95 96 95 94 93 94
74 76 76 76 77 77 78 78 78 78 78 79 78 77 76 76 77 77 78 80 81 83 85 88 91 92 94 95 95 95 95 94 93 93 93 93 93 92 92 91 91 91 91 92 94 96 96 95 94 93 91 90 89 89 90 91 91 92 94 95 95 94 95
68 69 70 70 71 73 74 74 74 74 74 73 72 72 72 72 72 74 75 76 78 80 82 84 87 88 90 91 92 93 93 92 92 93 93 94 94 93 93 93 93 93 93 95 96 98 99 98 96 95 94 92 90 89 90 91 91 91 92 94 94 94 95
63 64 64 64 66 68 69 69 69 69 68 67 66 67 67 67 68 70 71 73 75 77 78 80 81 82 83 85 86 88 89 90 91 92 93 93 94 94 94 94 95 95 96 97 99 100 101 100 98 97 97 95 91 91 92 92 91 91 92 92 93 93 94
59 58 58 59 61 63 64 64 63 62 61 60 60 61 62 63 64 65 67 69 70 72 73 73 75 76 77 78 80 81 81 83 85 88 90 91 92 93 94 95 96 97 98 99 101 102 103 102 100 98 98 97 95 95 95 93 91 92 92 93 93 93 93
55 53 54 56 58 59 58 57 56 55 55 54 55 56 57 58 58 60 62 64 65 66 66 67 68 70 71 73 74 74 74 75 78 80 82 85 88 90 92 94 95 97 98 99 101 103 103 103 101 99 98 98 98 98 97 93 92 93 93 93 93 93 93
52 50 51 53 54 53 52 51 50 49 49 50 51 52 53 53 53 54 56 58 59 59 59 60 62 64 65 67 68 68 69 70 72 73 74 77 81 83 86 89 92 94 96 97 100 102 103 103 101 99 99 100 100 99 96 93 93 94 94 93 93 93 94
49 48 49 50 49 48 47 46 45 45 45 46 47 48 48 48 48 49 51 52 53 53 53 54 56 58 59 60 62 63 64 65 66 67 68 70 74 76 78 81 84 87 90 92 95 98 100 100 100 99 99 101 101 98 94 93 94 95 95 95 94 93 93

ECMWFFLT1_250_spd_015.txt.gz
Wind_Speed
40 40 40 41 42 43 44 45 46 46 47 47 48 48 49 50 51 52 53 54 54 53 55 55 55 54 52 51 52 53 53 51 49 48 47 45 43 43 45 43 40 37 37 40 40 38 37 38 40 42 43 44 45 47 49 48 47 45 42 40 39 37 36
42 42 42 42 43 43 44 45 47 47 48 49 49 49 50 50 51 52 53 53 53 53 54 56 57 57 55 53 52 54 55 53 51 50 49 47 46 46 46 46 45 42 41 42 42 40 39 39 39 41 43 42 42 44 46 47 48 46 43 41 39 38 37
44 44 44 44 44 45 46 46 47 48 49 50 51 51 51 52 52 53 53 54 54 53 53 55 57 58 58 57 55 55 57 57 55 54 52 51 49 49 48 47 48 47 45 44 45 44 42 41 41 41 42 42 41 41 42 43 45 46 45 43 41 41 40
46 47 47 47 47 47 48 48 49 49 50 51 52 52 53 53 54 54 55 55 55 55 55 54 56 58 59 60 58 57 57 59 59 58 57 56 54 53 51 49 49 50 48 47 48 48 46 44 43 43 42 41 41 40 39 39 40 42 43 43 42 41 40
49 49 49 50 49 49 50 50 51 51 52 52 53 53 54 55 55 56 56 57 57 57 57 56 56 57 58 60 61 60 59 59 60 61 61 60 59 58 56 53 52 52 51 50 50 50 50 47 43 42 43 42 41 41 39 37 36 37 39 41 42 40 39
52 52 52 52 52 52 52 53 53 53 54 54 55 55 56 56 57 57 58 58 59 59 59 59 58 58 58 60 61 62 61 61 60 61 62 62 62 61 61 59 57 56 56 55 53 51 51 50 44 43 45 43 41 43 42 40 38 37 38 40 42 41 38
55 55 55 55 54 54 55 55 55 55 55 56 57 57 58 58 58 59 59 60 60 61 61 61 61 60 60 60 61 62 63 63 62 62 63 63 63 63 63 63 62 61 60 60 58 55 53 53 49 47 47 44 42 44 45 44 43 41 41 42 43 42 40
56 57 57 57 57 57 57 57 57 57 57 58 58 59 60 60 60 61 61 61 62 62 63 63 64 63 62 62 63 63 63 64 64 63 64 64 64 64 64 64 64 64 64 63 61 58 57 56 55 53 51 47 45 45 46 46 45 45 45 45 44 43 43
57 58 58 59 59 60 59 59 59 58 59 59 60 61 61 62 62 62 63 63 64 64 65 65 65 66 65 65 65 65 65 65 65 65 66 66 66 66 66 65 65 66 67 67 64 62 60 59 58 57 55 52 49 48 48 47 47 47 49 47 45 44 43
59 59 59 59 60 61 61 61 61 60 60 60 61 62 62 63 63 64 64 65 66 66 67 67 67 67 68 68 68 68 68 67 67 67 67 67 68 69 68 68 67 68 69 70 69 67 65 62 61 60 59 57 54 52 51 49 49 50 51 49 47 45 43
63 63 62 62 62 62 62 62 62 63 63 62 62 63 63 63 64 65 66 66 67 68 68 69 69 69 69 70 70 70 70 70 69 69 69 69 69 70 70 70 70 70 71 71 71 70 69 67 65 63 62 61 59 57 55 54 53 53 53 51 50 48 44
66 66 66 65 65 64 64 63 64 64 65 65 65 65 65 65 65 65 66 67 68 68 69 70 70 70 71 72 72 73 73 72 72 72 71 71 71 71 72 72 72 72 73 73 72 72 72 70 69 67 65 64 63 61 60 58 56 56 56 55 54 51 47
69 70 69 69 68 68 67 66 66 66 66 67 67 67 67 67 67 67 68 68 68 69 69 70 71 71 72 73 74 74 75 75 74 74 74 74 74 73 73 73 74 74 75 75 75 74 74 73 72 71 69 67 66 65 65 63 61 61 61 60 57 53 50
72 73 72 72 71 71 70 69 69 68 68 68 69 69 69 69 69 70 70 70 70 70 70 71 71 72 73 74 75 76 76 76 76 76 76 76 76 76 75 74 75 76 76 76 76 77 76 75 74 73 72 70 69 69 68 67 65 66 66 65 61 57 55
74 74 74 74 74 74 73 72 72 71 71 71 71 71 71 71 71 71 72 72 72 72 72 73 73 73 74 75 76 77 77 78 78 78 78 78 78 78 77 76 76 77 78 77 78 78 78 78 77 76 75 73 72 72 72 70 68 69 71 70 66 61 59
74 74 75 75 75 75 74 74 74 74 74 74 73 73 73 73 73 73 74 74 74 74 75 75 75 74 75 75 76 77 78 78 78 79 79 79 80 79 79 79 78 78 78 78 78 79 80 80 80 79 78 77 75 75 74 74 72 71 73 75 72 67 64
74 74 74 74 74 74 74 74 75 76 76 76 75 75 75 75 75 76 76 77 77 77 77 77 76 76 77 77 77 78 79 79 79 79 80 80 81 81 80 80 80 80 80 79 79 80 81 81 81 82 81 81 80 78 77 76 75 75 75 76 77 73 70
76 75 75 74 74 74 74 74 75 75 76 76 76 76 76 76 76 77 78 79 80 80 79 79 78 78 79 79 79 79 79 79 79 79 80 81 81 81 81 81 82 82 82 81 81 81 82 82 82 82 83 83 83 83 81 79 78 77 77 77 78 77 74
79 78 77 76 76 75 75 75 75 75 75 76 76 77 77 77 78 78 79 80 81 82 82 81 81 80 81 81 80 81 81 80 80 79 80 81 81 82 82 82 83 83 83 83 83 83 83 83 83 83 83 84 84 84 84 83 81 80 79 78 79 79 77
82 81 80 79 79 78 77 76 76 76 75 75 76 76 77 78 79 79 81 81 82 82 82 82 82 82 82 82 82 82 82 82 81 81 80 80 81 82 82 83 83 84 84 83 84 84 85 85 84 84 84 85 85 85 84 84 83 82 81 80 81 81 80
86 85 84 83 82 81 80 79 78 78 77 77 76 77 77 78 79 80 81 82 83 83 82 82 82 83 83 84 83 82 82 82 82 82 82 82 82 82 82 83 84 84 85 84 84 84 85 86 86 85 85 86 86 86 86 85 85 84 82 82 82 83 83
89 88 87 87 86 85 84 83 82 81 80 79 79 79 79 79 80 80 82 82 82 82 82 82 83 83 84 84 84 83 82 82 82 83 83 84 83 83 83 83 83 84 85 85 85 85 85 86 86 86 87 87 87 87 87 87 87 85 84 83 82 83 84
90 90 90 90 89 88 87 86 85 84 83 83 82 82 81 81 82 83 83 82 82 81 81 82 83 84 84 84 84 84 83 82 82 82 83 84 85 85 84 84 83 84 85 85 85 85 86 86 86 87 87 88 88 87 87 88 88 87 86 85 84 84 83
90 91 91 91 91 90 89 89 88 87 87 86 85 85 84 85 85 86 85 84 82 82 82 82 83 84 84 84 84 84 83 83 82 82 82 83 84 85 86 86 85 84 85 85 85 85 86 86 87 87 87 88 88 88 88 87 87 88 88 87 86 85 84
88 90 91 92 92 91 91 90 90 90 89 89 88 88 87 88 88 88 87 85 84 84 84 85 85 85 85 84 84 83 83 82 82 82 82 82 83 85 86 86 86 86 86 85 85 85 85 86 86 87 88 88 88 88 88 87 87 87 88 87 87 87 85
84 86 88 89 90 90 91 91 91 91 91 91 90 90 90 90 90 89 88 87 87 87 88 88 88 87 86 85 85 84 83 83 82 82 82 82 83 84 85 86 87 87 87 87 86 86 85 85 86 86 87 87 88 88 88 88 87 87 87 87 86 86 86
80 82 83 84 85 86 87 88 89 90 91 92 92 92 93 92 91 90 88 88 89 89 90 91 90 89 88 88 87 86 85 84 84 83 83 83 83 83 84 85 86 87 88 88 88 87 87 86 86 86 86 86 86 87 87 87 87 87 87 87 85 85 86
76 77 77 78 79 80 81 82 84 86 88 90 91 92 93 93 92 91 90 90 90 90 91 91 91 91 90 89 89 88 87 86 86 86 85 85 84 84 84 85 85 86 87 88 89 90 89 88 87 87 85 85 85 86 86 86 86 87 87 87 86 86 87
70 68 68 69 70 71 73 76 79 81 83 85 86 88 89 90 91 91 91 91 91 91 91 92 91 90 90 90 89 89 88 88 88 88 88 88 87 86 85 85 85 86 87 88 90 91 91 91 90 88 87 86 86 85 84 85 85 85 86 87 87 87 88
64 62 62 62 63 64 66 70 73 76 78 79 81 83 84 85 86 87 89 89 89 90 91 91 91 91 90 90 89 89 88 88 88 89 89 90 89 88 87 87 86 86 87 88 89 91 92 92 91 90 89 88 87 85 84 85 85 84 85 86 87 87 88
64 62 60 60 59 59 61 64 67 70 72 73 75 77 79 80 82 83 84 85 84 85 86 87 87 87 88 88 89 88 88 88 88 88 89 90 90 90 89 89 88 87 88 89 91 92 93 93 92 92 91 90 88 86 85 87 86 85 85 86 86 86 86
67 65 62 61 60 59 59 61 63 64 65 66 68 71 72 74 77 79 80 80 79 78 79 80 80 81 82 83 84 85 85 85 86 87 88 89 90 90 90 90 90 90 90 91 92 93 94 94 93 92 92 91 89 87 88 90 89 86 85 85 85 86 86
69 66 65 63 61 60 60 60 60 58 58 60 62 64 66 69 72 74 75 74 73 73 73 73 74 76 77 78 79 79 79 80 81 83 85 86 87 88 89 90 91 92 92 93 94 95 95 94 93 93 92 91 89 88 91 92 90 87 85 84 84 85 85
68 67 66 64 61 59 58 57 54 52 53 56 57 58 62 65 68 69 69 68 68 68 68 68 70 71 72 73 73 73 73 74 76 77 79 81 83 85 87 89 91 93 93 93 94 95 95 95 94 93 92 90 89 90 92 92 90 89 87 85 85 85 84
66 65 63 61 58 56 55 53 50 49 50 51 52 55 59 61 61 61 61 61 62 63 63 64 65 66 67 67 67 67 68 68 69 70 71 73 76 79 82 86 89 92 92 92 92 93 94 94 94 93 92 91 91 91 91 91 91 90 88 86 85 84 83
65 62 59 56 55 53 52 50 48 48 48 48 50 54 56 55 53 53 54 55 57 57 58 60 61 62 62 63 63 64 63 63 63 63 63 66 69 73 76 80 84 88 90 90 91 92 92 92 93 93 93 93 93 92 90 90 90 90 89 88 86 84 82
62 58 55 53 51 50 48 47 45 45 45 46 48 49 48 47 46 47 49 51 53 54 55 57 58 58 58 60 61 61 60 59 59 59 59 62 65 68 70 73 76 80 83 86 88 90 91 91 92 93 94 95 94 92 90 89 90 91 90 89 87 84 83

ECMWFFLT1_250_spd_018.txt.gz
Wind_Speed
41 41 41 41 40 40 39 39 39 40 40 41 42 43 44 45 46 47 48 48 50 51 53 54 54 55 55 52 50 50 52 54 55 53 52 51 51 52 54 54 53 50 46 42 40 41 41 38 35 34 36 39 41 41 43 45 46 49 53 55 54 53 51
42 42 42 42 42 41 41 40 40 41 41 42 43 44 45 46 47 48 49 49 50 51 51 53 54 54 54 54 53 52 52 54 57 57 56 56 56 55 55 56 57 56 52 48 45 45 43 41 40 38 38 39 40 41 42 43 44 47 50 53 55 55 54
43 43 44 44 43 43 43 42 42 42 42 43 44 45 46 47 48 49 49 50 51 51 52 52 54 55 55 54 54 54 54 54 55 58 59 58 58 58 56 56 58 58 56 53 52 50 46 43 43 42 41 42 41 41 42 42 43 45 47 51 54 56 57
45 45 45 45 45 45 45 44 44 44 44 44 45 46 47 48 49 50 50 51 52 52 53 53 54 55 55 55 54 55 56 56 56 56 58 59 60 59 58 57 58 59 57 55 55 54 50 47 46 45 44 44 43 43 43 42 43 44 46 48 51 54 56
47 47 47 47 47 47 47 46 46 46 46 47 47 47 48 49 51 52 52 53 53 54 54 55 55 56 56 56 56 55 56 57 58 58 58 59 59 60 60 59 59 60 58 56 56 55 52 50 49 48 47 45 45 45 45 43 43 44 46 47 48 50 52
49 49 49 49 49 49 49 48 48 48 48 49 49 49 50 51 52 53 54 55 55 55 56 56 56 57 58 58 58 57 56 57 59 59 60 60 59 59 60 60 61 60 59 58 57 56 54 53 52 51 51 49 45 46 46 44 44 45 45 46 48 48 50
50 50 51 51 51 51 51 50 50 50 50 51 51 52 52 53 53 54 55 57 57 58 58 58 58 59 59 60 60 59 58 58 59 60 60 61 61 60 59 60 61 61 61 60 59 58 56 55 54 54 54 52 49 48 48 47 47 46 46 47 47 47 47
52 52 53 53 53 53 53 53 53 53 53 53 53 54 55 55 56 56 57 58 59 60 61 61 61 61 61 61 62 61 61 60 60 61 62 61 62 62 61 61 62 63 63 63 61 60 58 57 57 56 56 55 54 52 50 49 48 47 48 48 47 46 46
54 54 55 55 55 55 55 55 56 56 56 56 56 56 57 57 58 59 60 60 61 61 62 63 63 64 64 64 64 64 63 63 62 63 63 63 63 64 63 63 63 64 66 66 65 64 62 60 59 59 58 58 57 56 53 51 50 49 50 49 47 46 45
57 57 57 57 57 57 57 57 57 58 58 59 59 59 60 60 60 61 62 62 63 63 63 64 65 65 66 66 66 66 66 66 65 65 65 65 65 65 65 65 65 66 68 69 68 68 66 64 62 62 61 60 60 58 57 53 51 51 52 50 48 47 47
60 60 60 60 60 60 59 59 59 60 60 60 61 61 62 62 63 63 63 64 64 65 65 66 66 67 68 68 68 68 68 68 68 67 67 67 67 67 67 67 67 67 68 70 71 71 70 69 67 66 65 63 62 61 59 56 53 54 55 53 50 49 48
63 63 63 63 63 63 62 62 62 62 63 63 63 63 63 64 65 65 65 65 65 65 66 67 68 69 69 70 70 70 70 70 70 70 69 69 69 68 68 68 68 69 69 70 71 73 73 73 72 71 69 68 66 64 64 61 58 59 58 56 54 52 50
67 67 67 66 66 66 65 65 65 65 65 65 65 65 65 65 66 66 67 67 67 67 67 68 68 70 71 72 72 72 72 71 72 72 72 71 71 70 70 70 70 71 71 70 71 72 74 75 75 75 74 73 71 70 69 66 64 64 63 60 58 56 53
69 70 69 69 69 69 68 68 68 68 68 68 68 68 68 67 67 67 68 68 68 69 69 70 70 70 71 72 73 73 73 73 73 74 74 73 73 72 72 72 72 73 72 72 72 72 74 75 76 77 76 76 75 74 72 70 68 68 67 65 63 61 58
72 72 72 72 72 71 71 71 70 70 70 70 70 70 70 70 69 69 69 69 70 70 71 71 71 72 72 72 73 73 74 74 74 75 75 75 75 74 74 74 74 74 74 74 74 74 74 75 76 77 78 78 77 76 75 73 71 70 70 70 68 66 63
74 74 74 74 74 73 73 72 72 72 72 72 72 72 72 72 72 71 72 72 72 72 73 73 73 73 73 73 73 73 74 74 75 75 76 77 77 76 76 76 76 76 76 75 76 76 76 76 76 77 79 79 79 78 78 76 74 72 72 72 72 70 68
75 75 76 75 75 75 75 74 74 74 74 74 74 74 74 73 73 73 74 74 75 75 75 74 74 73 73 74 74 75 75 75 75 76 76 77 77 78 77 78 78 79 78 77 78 78 78 78 78 78 78 80 80 80 80 79 77 75 74 74 74 74 72
77 77 76 76 77 76 76 76 76 76 76 76 76 75 75 75 75 75 76 76 77 77 77 76 76 75 75 75 75 76 76 76 76 77 77 77 77 78 78 78 79 80 80 80 80 80 80 80 80 79 79 80 80 81 82 82 81 79 77 76 76 77 76
79 79 78 78 78 78 77 77 76 76 77 77 77 76 76 76 76 77 78 79 79 79 78 77 77 76 76 77 77 77 78 78 78 78 78 78 78 78 78 78 79 80 81 81 81 82 82 82 81 81 81 81 81 81 81 82 82 82 80 79 79 79 78
82 82 82 81 81 81 80 79 78 78 78 78 77 77 77 77 77 78 79 80 80 80 79 78 78 78 78 78 79 79 80 80 80 80 80 80 80 80 79 79 80 80 81 81 82 83 83 83 83 83 83 82 82 82 81 82 82 82 82 82 82 82 80
85 85 85 85 85 85 84 83 82 81 80 80 79 79 79 79 79 80 81 81 81 80 79 79 78 78 79 80 80 81 82 82 82 81 81 81 82 82 81 81 81 81 81 81 82 82 83 84 84 84 85 84 84 84 82 82 82 82 83 83 84 84 84
86 86 87 88 88 88 88 87 86 85 84 83 83 82 82 82 82 83 83 83 82 81 80 80 79 80 80 81 81 82 82 83 83 83 83 83 84 84 84 84 83 83 83 82 82 83 83 84 84 85 86 86 85 85 84 84 83 82 82 83 84 85 86
86 87 88 89 90 90 90 90 89 89 88 88 87 86 86 86 86 86 85 85 84 83 82 82 82 82 82 82 82 82 82 83 83 84 84 84 85 85 86 86 86 85 85 84 84 84 84 84 84 84 85 86 86 86 85 85 85 84 83 82 83 85 86
85 86 87 88 90 91 91 90 90 91 91 90 90 89 89 89 90 90 89 88 87 86 85 85 85 84 84 84 83 83 83 83 83 84 84 84 85 86 86 87 87 87 88 87 86 85 85 85 85 85 85 86 86 86 86 86 86 86 85 83 83 84 84
82 83 85 87 88 89 89 89 90 91 92 92 92 92 92 92 93 92 92 91 90 89 89 89 88 88 87 86 85 84 84 84 84 84 84 85 85 86 86 86 87 88 88 89 89 88 87 86 86 86 86 86 86 86 85 85 86 87 87 85 84 84 84
81 82 84 86 87 87 86 86 87 88 90 91 92 92 93 94 95 94 94 93 92 92 92 92 91 91 90 90 89 87 86 86 85 85 86 86 86 86 86 87 87 87 88 89 90 89 89 88 87 87 86 86 86 86 86 85 85 86 88 87 86 85 85
81 83 85 86 86 85 85 85 85 86 87 88 89 91 93 94 95 95 95 95 95 94 94 93 93 93 92 92 92 91 90 89 88 88 88 87 87 87 87 87 87 87 88 89 89 90 89 89 88 87 87 86 85 86 86 86 86 86 87 87 86 86 87
82 83 85 86 85 85 84 84 84 84 85 86 87 88 90 92 93 94 95 95 95 95 96 96 96 95 95 94 94 93 93 92 91 91 91 90 89 89 88 88 87 87 88 89 90 90 90 89 89 88 87 86 85 85 86 86 87 86 86 86 86 86 88
81 81 83 84 83 83 83 82 82 82 82 83 84 85 86 88 89 91 92 93 93 93 95 96 97 97 97 97 97 96 95 94 93 93 93 92 92 91 91 90 89 88 89 89 90 90 90 90 89 88 87 87 86 85 85 86 87 87 86 85 84 85 87
80 80 82 81 80 80 81 79 78 78 78 79 78 78 79 81 83 85 86 87 88 89 91 93 95 96 97 98 98 97 96 95 95 94 93 93 93 93 93 93 92 91 91 91 91 91 90 89 88 88 87 87 86 86 86 86 87 87 87 86 84 84 85
78 80 81 79 78 79 79 77 75 73 71 70 68 67 69 71 74 77 79 79 80 82 85 88 91 93 95 96 96 95 95 95 94 93 93 93 94 94 93 94 94 94 93 94 93 93 91 90 88 87 87 86 86 86 86 88 88 87 87 86 85 84 84
78 79 79 78 77 77 76 75 72 67 63 61 59 59 60 62 65 67 69 70 73 76 79 82 85 89 91 91 91 91 91 90 90 90 91 92 93 93 93 94 95 95 95 95 95 94 93 91 89 88 87 87 86 86 88 90 89 87 86 85 85 84 83
79 78 78 77 76 75 74 73 68 63 59 57 55 55 55 56 57 59 62 65 68 71 73 77 81 85 85 85 85 85 84 84 84 85 86 88 89 90 92 93 94 95 95 95 95 94 94 93 92 91 90 89 87 89 91 91 90 87 85 84 83 83 83
77 77 77 75 74 73 73 70 65 61 59 57 54 53 52 52 53 55 57 60 63 67 71 74 77 80 80 80 79 78 77 76 76 77 79 81 83 85 88 90 92 94 94 94 94 93 94 94 94 93 92 90 90 91 92 91 90 87 85 82 82 81 82
75 75 75 74 72 71 70 66 63 60 58 56 54 53 51 50 50 51 53 57 62 66 69 71 73 75 76 75 74 73 71 70 70 70 72 74 77 79 83 85 88 90 91 91 92 92 93 94 94 93 92 92 92 92 92 91 90 88 85 82 80 79 80
73 72 72 72 71 70 68 65 62 59 56 55 53 51 49 47 47 49 53 58 61 64 65 67 68 70 70 70 69 67 66 65 65 65 65 67 70 73 77 80 82 84 85 86 87 88 89 91 91 92 92 92 92 92 92 91 90 88 86 83 81 79 79
71 70 70 70 69 68 66 63 60 57 55 53 50 47 45 44 46 49 53 56 59 60 61 62 63 63 63 63 63 62 61 60 60 59 59 61 64 67 70 73 75 77 79 81 81 82 83 85 87 88 90 91 91 92 92 91 90 88 87 84 82 81 81

ECMWFFLT1_250_spd_021.txt.gz
Wind_Speed
39 39 39 39 39 39 39 38 38 37 37 37 37 38 38 39 39 40 40 41 43 45 47 48 50 51 51 51 50 51 51 51 52 53 54 53 50 50 49 47 47 47 46 45 44 43 41 41 41 42 44 44 44 42 41 39 38 38 40 42 42 43 45
40 40 40 40 40 40 40 40 40 39 39 39 39 39 40 40 40 41 41 42 43 45 47 49 50 51 52 53 54 54 54 54 53 54 57 57 55 53 53 51 51 51 50 50 49 47 46 46 44 43 43 43 44 44 43 42 40 38 39 40 41 41 41
41 41 41 41 41 42 42 42 42 41 41 41 40 41 41 41 42 42 43 44 45 46 47 49 50 52 53 54 55 56 57 57 56 55 56 57 57 57 56 56 56 55 54 54 53 52 50 50 49 48 46 44 44 45 46 45 43 40 39 40 41 41 41
43 43 43 43 43 43 43 43 43 43 43 43 43 43 43 43 44 44 44 45 46 47 48 49 50 52 54 55 56 57 58 59 59 57 56 57 58 58 59 59 59 58 58 58 57 56 55 54 55 55 53 50 47 46 46 47 45 43 42 41 41 41 41
45 45 45 45 44 44 44 44 45 45 45 45 45 45 45 45 46 46 46 46 47 48 49 50 51 52 54 55 56 57 59 60 60 59 57 57 58 58 59 59 60 60 60 60 60 59 58 57 58 58 57 56 53 51 49 46 46 46 45 44 43 42 42
47 46 47 47 46 46 46 46 46 46 47 47 47 47 47 47 47 48 48 48 49 49 50 51 52 53 54 55 56 57 59 60 61 60 59 58 58 58 59 59 61 61 61 61 61 60 59 59 59 59 59 58 57 57 55 49 47 47 47 47 46 45 44
49 48 48 48 48 48 48 48 48 48 48 48 49 49 49 49 49 50 50 51 51 51 52 52 53 54 55 56 57 58 59 60 61 61 61 59 58 59 60 60 61 62 63 63 62 61 61 61 61 62 62 61 59 59 59 56 52 50 49 50 49 47 47
51 50 50 50 49 49 50 50 50 50 50 50 50 51 51 51 51 51 52 52 53 54 54 55 55 56 57 57 58 59 60 61 61 62 62 62 61 60 60 62 62 63 64 64 64 64 63 64 64 64 64 63 62 61 61 60 56 54 53 52 50 49 49
53 53 53 52 51 51 51 51 52 52 52 52 52 52 53 53 53 53 53 54 54 55 56 57 57 58 58 59 59 60 61 62 62 63 63 64 63 63 62 63 64 65 65 65 65 66 65 65 65 66 66 65 64 63 63 62 59 58 57 55 52 51 51
55 55 55 55 54 54 53 53 53 54 54 54 54 54 54 55 55 55 55 55 56 56 57 58 59 60 60 60 61 61 62 62 63 63 64 64 65 65 65 64 65 66 66 66 66 66 66 66 66 66 67 67 66 65 64 63 62 61 60 58 55 54 53
58 57 57 57 57 57 56 55 55 55 56 56 56 56 56 57 57 57 57 57 58 58 59 59 60 61 62 62 62 63 63 64 64 64 65 65 66 66 67 67 67 67 67 67 67 67 67 66 66 66 67 68 68 67 66 65 64 63 62 61 59 58 56
60 60 60 60 60 59 59 58 58 57 58 58 58 58 58 58 59 59 59 59 60 60 61 61 62 62 62 63 63 64 65 65 66 66 66 66 67 67 67 68 68 68 68 68 68 68 68 68 67 67 67 68 69 69 68 66 64 65 65 63 62 61 59
62 62 63 63 63 63 62 61 61 61 61 60 60 60 60 60 61 61 61 61 62 62 63 63 63 64 64 64 64 65 66 67 67 68 68 68 68 69 69 69 70 70 69 69 69 70 70 69 69 69 68 68 68 69 70 69 66 65 67 66 64 64 63
65 65 65 66 66 66 65 64 64 64 64 64 63 63 63 63 63 63 63 63 64 64 64 64 65 65 65 66 66 66 67 68 68 69 69 70 70 70 71 71 72 72 71 71 71 71 71 71 71 71 71 70 70 70 70 70 69 67 68 68 67 67 66
67 67 67 68 68 68 68 67 67 67 67 67 67 66 66 66 66 66 66 66 67 67 66 66 66 66 67 67 68 68 69 69 70 71 71 72 72 72 73 73 74 74 73 73 73 73 72 72 72 72 72 72 72 72 71 71 71 70 69 70 70 69 68
69 69 69 70 70 70 70 70 70 70 70 70 70 69 69 69 70 70 70 70 70 70 69 69 68 68 68 69 69 69 70 71 72 73 73 73 74 74 74 75 76 76 75 75 75 76 75 74 74 74 74 74 74 74 74 73 72 72 72 72 72 72 71
70 71 71 71 71 71 71 72 72 72 72 72 72 72 72 72 73 73 74 74 74 73 72 72 71 71 71 71 71 71 71 72 73 74 75 75 76 76 76 76 77 78 77 77 77 77 77 76 76 75 76 76 75 75 76 75 74 74 74 74 75 74 74
72 72 72 72 73 73 73 73 74 74 74 74 75 75 75 75 75 76 76 76 76 76 76 75 75 74 73 73 73 74 74 74 74 75 75 76 77 77 77 78 79 79 79 79 79 80 79 78 78 77 77 77 77 77 77 77 76 76 76 76 77 77 77
75 74 74 74 74 74 74 75 75 76 76 76 76 77 77 77 77 78 78 78 78 78 78 78 77 77 77 76 76 77 76 76 76 77 77 77 78 78 79 80 80 81 81 81 81 81 81 81 80 79 79 79 79 79 78 78 77 77 77 77 78 79 80
79 78 78 78 77 77 76 77 77 77 77 77 78 78 78 79 79 80 80 80 80 80 80 80 79 79 79 79 79 79 79 79 79 79 80 80 80 80 80 81 82 82 83 83 83 83 83 83 82 82 81 81 80 80 79 79 79 78 77 78 79 80 81
80 80 80 81 81 81 81 81 81 80 80 80 80 80 80 80 81 81 81 82 82 82 82 82 81 81 81 81 81 81 81 81 81 82 82 83 83 83 83 83 83 84 84 84 84 85 85 85 84 84 83 83 82 81 81 81 80 79 78 78 79 80 81
79 79 80 81 82 84 85 85 85 85 84 84 84 84 84 84 84 84 84 84 84 84 84 83 83 82 82 82 82 82 82 82 83 83 84 84 85 85 85 85 85 85 86 86 86 86 87 87 86 86 86 85 84 83 83 82 82 81 80 79 79 80 81
73 73 74 75 77 79 82 84 86 87 87 88 88 88 88 88 88 87 87 87 87 87 87 86 85 85 84 83 83 83 83 83 84 84 84 85 85 86 86 86 87 87 88 88 88 88 88 88 88 87 87 87 87 86 85 84 83 83 82 81 81 81 81
61 63 67 70 72 74 78 81 83 85 87 89 90 90 91 92 92 91 91 91 91 90 90 89 89 88 86 85 84 84 84 84 85 85 85 85 86 86 87 87 88 89 89 90 90 90 90 90 90 89 88 88 88 88 87 86 86 85 84 83 83 83 82
59 57 60 66 71 74 77 78 80 82 86 88 89 91 92 93 94 94 94 94 94 94 94 94 93 91 90 88 87 87 86 86 86 87 87 87 87 87 88 88 89 89 90 91 91 92 92 92 92 91 90 90 89 88 87 87 87 87 86 85 84 84 84
67 65 61 60 66 74 76 77 79 80 83 86 88 90 92 92 93 94 95 96 97 97 97 97 96 95 93 92 92 91 90 90 90 90 89 89 89 89 90 91 91 91 91 91 92 92 92 92 93 93 92 92 91 89 88 87 87 87 87 87 86 85 85
71 73 70 64 65 71 75 77 79 80 81 84 87 89 90 91 92 94 95 96 98 98 99 99 98 97 96 95 95 94 93 93 92 93 93 93 93 93 94 94 94 94 94 93 93 92 92 92 92 92 92 92 92 91 90 88 87 87 87 87 86 86 87
71 75 78 76 75 78 80 79 80 80 79 79 82 86 89 91 91 93 94 96 97 98 99 99 99 99 98 98 97 96 95 94 94 94 95 96 96 97 98 98 98 98 97 97 96 95 93 92 91 91 91 91 91 91 91 89 88 87 87 87 86 86 88
74 77 82 85 86 89 89 88 85 82 79 77 78 82 87 90 92 93 94 95 95 96 97 98 99 99 99 99 98 97 97 96 96 96 97 98 99 100 101 101 101 101 101 100 99 98 96 93 91 90 89 89 89 90 90 90 90 88 87 87 87 87 88
74 78 84 89 92 94 95 95 93 90 87 84 82 82 84 88 90 92 93 93 94 95 95 96 97 97 97 97 97 97 96 95 96 97 99 100 101 102 103 103 104 103 103 102 101 100 99 97 94 91 89 88 87 87 88 90 91 89 88 87 87 87 87
73 77 82 88 93 97 100 100 99 97 94 90 86 85 85 87 88 90 91 91 91 92 93 93 94 94 94 94 93 93 93 93 95 97 99 100 102 103 104 105 105 104 102 101 101 101 100 99 97 94 92 89 87 86 88 90 91 90 89 88 86 86 86
70 75 79 84 90 96 99 100 99 98 95 89 86 85 86 87 87 88 87 86 85 85 85 85 85 86 86 86 86 87 89 91 93 96 98 99 101 102 103 103 103 101 99 98 98 99 99 99 97 96 95 93 90 90 91 92 91 90 88 87 86 85 85
68 73 78 83 87 91 93 93 93 92 90 86 84 84 85 85 86 85 81 78 75 73 71 70 69 70 71 74 77 80 83 86 89 93 96 98 99 100 100 99 97 95 93 93 93 94 96 96 96 96 95 95 94 94 95 95 92 90 89 87 86 86 85
70 74 79 82 83 84 84 84 83 83 83 83 83 82 82 83 82 80 75 70 67 63 60 58 58 59 62 65 69 73 76 81 85 89 93 95 96 95 94 92 90 89 88 87 87 88 90 91 93 93 94 95 96 97 97 96 94 92 91 89 87 86 85
74 75 76 76 77 76 76 76 76 77 78 80 80 80 80 79 78 74 69 65 61 57 54 53 53 55 57 61 65 70 74 79 84 88 89 89 88 87 86 85 84 83 82 81 81 81 83 85 87 88 90 91 93 95 96 96 95 94 92 91 89 87 86
72 73 72 71 71 70 69 70 72 74 76 78 79 79 78 76 72 68 64 61 58 54 52 52 52 54 57 61 65 70 75 79 83 83 81 79 79 79 79 79 79 78 78 77 76 76 76 78 79 81 83 85 87 90 92 93 94 94 93 91 89 88 87
69 70 69 69 67 66 66 67 70 73 75 77 77 77 75 72 68 65 62 59 56 53 53 53 55 58 60 64 68 72 76 77 77 75 73 71 72 73 74 75 75 75 75 74 73 71 70 70 72 74 77 79 81 83 86 88 90 92 92 91 90 89 89

ECMWFFLT1_250_spd_024.txt.gz
Wind_Speed
36 36 36 35 34 34 34 33 33 32 33 33 33 34 35 35 35 35 35 36 37 39 42 46 50 51 49 46 44 46 46 46 47 47 47 47 46 45 46 47 45 44 44 42 38 38 38 37 37 37 35 34 34 35 36 38 38 38 38 38 37 37 38
37 37 37 36 36 35 35 34 34 34 34 34 34 35 35 36 36 36 36 37 37 39 40 44 49 52 52 49 46 46 48 48 49 50 50 50 50 50 50 51 50 48 46 46 44 42 42 42 42 41 39 38 37 37 38 39 39 39 39 40 39 39 39
37 38 38 38 37 37 36 36 35 35 35 35 35 35 36 36 37 37 37 37 38 39 40 42 47 51 52 51 49 48 49 51 51 52 53 53 53 53 54 55 55 54 51 50 49 47 47 47 47 45 43 41 41 40 40 39 39 39 39 39 39 40 40
38 38 38 39 39 38 38 38 37 36 36 36 36 36 36 37 37 38 38 39 39 40 41 42 45 49 51 52 51 50 51 53 54 54 55 55 55 55 55 56 57 57 56 54 53 52 51 51 51 49 47 45 44 45 44 42 42 43 42 42 41 40 40
39 39 39 39 40 40 39 39 39 38 38 38 37 37 37 38 38 39 39 40 40 41 42 43 44 47 49 51 51 51 52 54 56 57 58 58 58 57 57 58 60 60 59 58 56 55 54 53 53 53 52 49 48 49 49 47 46 46 46 46 45 43 42
40 40 40 41 41 41 41 41 40 40 40 40 40 39 39 39 39 40 40 41 42 42 43 44 45 46 48 50 51 52 53 55 57 58 59 60 61 61 61 61 61 62 63 62 60 58 57 56 56 56 56 54 52 52 53 51 50 50 50 49 49 48 47
41 41 41 42 42 42 42 42 42 42 42 42 42 42 41 41 41 41 42 42 43 44 44 45 45 46 48 50 51 52 53 55 56 58 60 61 62 63 64 63 62 62 63 64 63 62 61 59 59 60 60 58 56 56 56 55 54 54 55 54 53 52 52
43 42 42 43 43 44 44 44 43 43 44 44 44 44 44 44 44 43 43 44 44 45 46 46 46 47 48 50 51 52 54 55 56 58 60 61 62 63 65 66 65 64 63 64 65 66 64 62 61 62 62 62 61 61 60 59 59 59 59 59 58 56 54
46 45 44 44 44 44 45 45 46 45 45 46 46 47 47 47 47 46 46 46 46 47 47 48 48 48 49 50 51 53 54 55 57 58 59 61 62 62 63 65 67 67 66 64 65 66 67 65 63 62 63 63 64 64 64 63 63 63 63 62 61 59 57
48 47 47 47 46 46 47 47 47 47 48 48 48 48 49 49 50 50 50 49 49 49 49 49 50 50 51 51 52 53 54 56 57 58 60 61 62 63 64 64 66 68 68 67 66 66 67 67 67 66 65 66 66 66 66 66 66 66 66 64 62 62 61
51 50 49 50 50 49 49 49 49 49 50 50 50 51 50 51 51 52 53 53 52 52 51 51 51 52 53 53 54 55 56 57 58 59 60 61 62 64 65 65 66 67 69 69 69 67 67 67 68 68 68 68 68 69 69 68 69 69 68 66 65 65 63
54 53 53 52 53 52 52 52 52 52 52 52 52 53 53 53 53 54 54 55 55 55 54 54 54 54 54 55 56 57 58 58 59 60 61 62 63 64 65 66 67 67 68 69 70 69 69 68 67 67 68 68 68 69 69 69 70 71 71 69 68 68 67
57 57 57 56 56 56 55 55 55 55 55 55 55 55 55 55 56 56 56 57 57 57 56 56 56 57 57 57 58 58 59 60 61 62 63 63 64 65 66 66 67 68 69 70 70 70 70 69 69 68 68 68 68 68 69 69 69 71 72 71 71 71 71
60 60 60 60 60 59 59 58 58 58 57 57 57 57 57 58 58 59 59 59 59 59 59 59 59 59 60 60 61 61 62 62 63 63 64 65 65 66 67 67 67 68 69 70 71 71 72 71 71 70 70 70 70 70 70 69 69 71 73 74 73 74 74
63 63 63 63 63 62 62 61 60 60 60 60 60 60 60 60 61 62 62 62 62 61 61 61 61 62 63 63 64 64 64 65 65 66 66 66 67 67 68 68 69 69 69 70 71 72 73 73 73 73 73 72 72 72 71 71 71 71 73 74 74 75 76
65 64 64 65 65 64 63 63 62 63 63 63 63 63 63 63 64 65 65 65 65 65 64 64 64 65 65 65 65 66 67 67 68 68 68 69 69 69 70 70 70 70 71 72 73 73 73 74 74 74 75 75 74 74 73 72 72 72 73 74 75 75 75
67 67 67 67 66 66 65 64 64 64 64 65 65 65 65 66 67 67 68 68 68 68 68 68 68 68 68 68 68 68 68 69 69 70 70 71 71 71 72 72 73 73 73 74 74 75 75 75 75 76 76 76 76 76 76 74 73 73 73 75 76 76 76
71 70 70 69 68 67 66 66 65 65 66 66 67 67 68 68 69 70 71 71 71 71 71 71 71 71 71 71 71 71 71 71 71 71 72 72 72 73 74 74 75 75 76 76 77 77 77 77 77 77 77 77 77 77 77 76 75 75 74 75 77 78 78
75 74 74 73 71 70 68 67 66 66 67 68 68 69 70 71 72 73 73 73 74 74 74 75 75 75 75 75 75 75 75 75 75 75 74 74 75 75 76 76 77 77 77 78 79 79 79 79 79 79 79 79 79 78 78 78 77 77 76 76 77 79 80
78 77 77 76 74 73 71 70 69 69 69 70 70 71 72 74 75 76 76 76 76 77 77 78 78 78 78 78 78 78 78 78 78 78 78 77 78 78 79 79 79 79 79 79 80 81 81 81 81 82 82 82 81 81 80 80 79 78 77 77 78 80 81
77 78 78 78 76 74 70 69 71 73 74 74 74 74 74 76 77 78 78 78 79 80 80 81 81 81 81 81 81 81 81 81 81 80 80 81 81 81 82 82 82 82 82 82 82 82 83 83 83 83 84 84 84 84 83 83 82 81 80 79 79 80 81
76 76 77 77 76 74 71 68 69 72 74 75 76 76 77 78 79 80 81 81 82 82 83 83 83 84 84 84 84 83 83 83 82 83 83 83 83 84 84 84 85 85 85 84 84 84 85 85 85 85 86 86 85 85 85 85 85 84 83 81 81 81 82
75 75 76 75 75 75 73 71 71 73 73 73 74 75 77 79 81 83 84 85 85 85 85 86 86 86 86 86 86 85 85 84 84 84 85 85 85 86 86 86 86 86 87 87 87 87 87 87 88 88 88 88 88 87 86 86 87 86 86 84 83 83 83
76 75 75 76 76 76 73 71 73 76 77 77 76 75 76 79 83 85 87 88 88 89 89 89 90 89 89 88 87 86 86 86 86 86 86 86 87 87 88 88 88 88 88 89 89 89 89 90 90 90 90 90 90 89 89 88 88 88 87 86 86 85 85
76 76 75 76 77 77 76 74 74 75 77 80 81 79 78 81 84 87 88 89 90 90 92 93 93 93 92 91 90 89 88 87 87 87 87 87 88 88 89 89 89 89 90 90 91 91 91 92 92 92 92 92 92 92 92 91 90 90 89 87 87 87 87
76 76 76 76 77 78 78 77 76 77 78 80 81 79 80 84 86 87 88 89 91 92 93 94 94 94 94 94 93 92 91 91 90 90 90 90 90 90 90 89 89 90 91 91 92 92 93 93 94 94 94 93 93 94 94 93 93 92 91 89 88 87 88
76 76 76 76 76 78 78 78 77 77 79 81 81 80 82 86 89 90 89 90 92 94 95 95 95 95 95 95 95 95 94 94 93 93 93 93 93 92 92 92 92 92 93 93 93 94 94 94 94 94 94 94 95 95 95 95 94 94 93 92 90 88 89
75 75 75 75 76 77 78 78 77 77 78 80 82 83 86 90 93 93 92 92 92 93 94 95 95 95 95 95 95 95 95 95 95 95 96 96 95 95 95 95 95 96 96 97 97 97 97 96 96 95 95 95 96 96 96 96 96 95 94 93 91 90 90
72 73 74 75 75 76 77 77 77 77 78 79 82 85 90 93 94 94 94 93 93 93 93 94 94 94 95 95 95 94 95 95 95 96 96 96 96 96 97 97 97 98 99 99 100 101 100 100 99 99 99 99 99 99 98 98 97 95 94 92 91 90 90
70 71 71 72 73 73 74 76 76 77 78 80 83 86 91 94 95 94 94 93 93 94 93 92 91 90 90 91 91 91 92 93 94 94 95 96 97 97 97 98 99 99 100 101 102 102 102 102 102 103 103 104 104 103 102 102 100 97 93 90 89 89 89
68 68 69 69 70 71 71 73 75 77 78 80 83 87 91 95 96 96 95 94 95 95 94 91 89 87 86 86 86 86 86 86 87 87 88 91 94 96 97 98 99 99 99 100 101 102 103 105 106 107 107 107 106 106 106 105 103 98 93 89 87 86 86
65 66 66 67 68 68 69 71 73 75 77 79 82 86 90 94 97 98 98 97 97 97 96 94 92 90 87 86 85 84 83 83 83 83 83 84 88 91 93 96 97 98 99 100 101 102 104 106 107 108 108 107 106 106 107 106 103 98 94 90 88 87 87
63 63 64 65 66 67 68 70 71 73 76 78 81 84 88 93 96 98 99 99 99 98 98 98 96 93 90 87 85 84 82 80 79 78 76 77 79 83 86 89 92 95 97 99 101 102 104 104 105 105 105 104 104 104 104 103 100 97 95 93 91 90 89
61 60 61 62 64 65 66 68 70 73 75 78 79 82 86 90 93 96 97 98 99 99 98 98 97 95 92 89 87 85 82 78 74 71 69 69 71 74 78 82 85 89 93 96 98 99 100 100 100 99 98 98 97 97 96 94 93 93 93 93 93 93 93
61 60 60 60 62 63 64 66 68 71 74 77 78 79 82 86 89 91 93 95 97 97 97 98 97 96 93 91 89 86 80 75 69 65 62 62 65 68 71 75 79 84 88 92 94 94 93 93 92 91 90 88 87 85 84 82 82 84 85 87 90 92 93
61 60 60 60 61 63 64 65 67 69 72 75 76 78 80 82 84 85 87 88 90 92 93 95 95 94 93 90 87 82 75 69 63 60 58 58 60 63 67 72 77 82 86 87 87 87 85 84 83 81 79 77 74 72 70 68 69 72 75 78 82 86 90
59 60 61 61 62 64 66 66 67 69 71 73 75 77 78 79 80 80 81 81 82 84 86 87 87 87 86 83 79 74 70 64 61 59 58 58 60 64 68 72 76 79 81 82 82 81 80 78 76 74 72 70 66 64 62 60 62 64 67 70 75 79 84

ECMWFFLT1_250_spd_027.txt.gz
Wind_Speed
31 31 31 31 31 31 32 32 32 32 32 31 31 31 31 31 31 32 32 32 33 34 36 39 41 41 43 45 47 46 44 44 43 43 43 44 43 43 43 43 45 48 48 48 48 44 40 39 38 37 36 35 34 34 34 35 34 33 32 32 33 34 33
33 32 32 32 32 32 32 32 32 33 32 32 32 32 32 32 32 32 33 33 33 34 36 38 40 42 43 45 48 48 48 47 45 45 46 46 46 45 46 47 47 48 48 48 48 46 44 43 41 41 40 39 38 38 39 39 38 36 34 34 34 35 36
34 34 33 33 33 32 32 33 33 33 33 33 33 33 32 32 33 33 33 34 34 35 36 37 39 41 42 44 47 49 51 51 48 46 47 48 48 49 49 50 49 49 49 49 48 47 46 46 46 45 44 43 42 42 43 43 42 41 38 35 34 36 37
35 35 35 35 34 34 33 34 34 34 34 34 34 34 34 34 34 34 35 35 36 36 36 37 38 40 42 43 46 48 53 55 53 49 49 50 49 50 51 53 52 51 51 51 50 50 49 48 48 48 47 46 46 46 46 45 45 44 42 40 40 41 41
36 36 36 36 36 36 35 35 35 35 36 36 36 36 35 35 35 36 36 36 37 37 38 38 39 40 41 43 45 47 51 55 57 54 51 52 52 51 52 54 55 54 54 53 52 52 51 51 51 50 50 49 49 49 49 48 47 47 46 45 46 47 46
38 38 38 37 37 38 38 37 36 37 37 37 37 38 38 37 37 37 38 38 38 38 39 39 39 40 41 42 44 46 49 53 57 57 54 53 54 54 54 55 56 55 55 55 55 54 54 54 53 53 52 52 52 52 52 51 51 51 50 49 48 49 49
40 40 39 39 38 38 39 39 38 38 38 39 39 39 39 39 39 39 39 40 40 40 40 40 41 41 42 43 44 46 48 51 54 57 55 53 54 56 57 57 58 58 58 57 57 57 57 57 57 57 56 55 55 55 54 54 54 55 54 53 52 51 51
42 42 41 41 40 40 40 40 40 40 41 41 41 41 40 40 40 40 41 41 41 41 41 42 42 43 43 44 45 46 47 50 52 55 56 55 54 56 58 60 61 62 62 61 61 60 59 59 59 60 61 60 60 60 59 59 58 59 59 58 56 55 54
43 43 43 43 43 43 42 42 42 42 42 43 43 43 43 43 42 42 42 42 42 42 43 43 44 44 45 45 46 47 48 49 51 53 55 55 55 56 57 60 63 65 65 65 65 64 63 62 61 61 63 63 64 64 63 63 62 62 62 62 61 59 57
46 45 45 45 46 46 45 45 44 44 44 45 45 46 46 45 45 44 44 43 43 44 44 45 45 46 47 47 48 48 49 50 51 53 55 56 56 56 57 59 62 65 67 68 68 68 67 67 65 64 65 65 65 66 66 66 66 64 64 64 64 62 61
49 49 48 49 49 49 48 48 48 47 47 47 47 47 48 48 48 47 47 46 45 45 46 46 47 47 48 49 50 50 51 51 52 53 55 56 57 57 58 59 61 63 66 68 70 71 71 71 70 68 67 67 67 68 68 69 70 69 67 66 67 66 65
51 51 51 52 52 52 51 51 50 50 50 50 49 49 50 50 50 50 50 49 49 49 48 48 48 49 50 51 52 52 53 53 54 55 55 56 57 58 58 59 60 62 64 66 68 69 71 72 74 73 71 69 68 69 70 71 73 73 71 69 69 68 67
53 53 53 54 54 54 53 53 52 52 52 52 52 52 52 52 52 52 52 53 53 53 53 52 52 52 53 53 54 54 55 56 56 57 57 57 58 58 59 59 60 61 63 65 66 67 68 70 72 74 74 73 70 69 69 69 71 73 73 72 72 71 69
55 55 55 55 55 55 55 55 54 54 54 55 55 55 55 55 55 55 55 55 55 56 56 56 56 56 56 57 57 57 58 58 59 59 59 60 60 60 60 60 60 61 62 64 65 66 67 68 69 70 72 73 73 72 70 69 69 71 72 73 73 74 73
59 57 57 57 57 57 56 56 56 57 57 57 57 58 58 58 59 59 58 58 58 58 59 59 59 60 60 60 60 60 61 61 61 61 62 62 62 62 62 62 62 62 63 63 64 65 67 68 69 69 69 70 71 72 72 71 70 70 71 72 72 73 74
62 61 60 60 59 59 58 58 58 59 59 59 60 60 61 61 62 62 62 62 61 61 61 62 62 63 63 64 64 63 63 63 63 64 64 64 65 65 65 65 65 65 65 65 66 66 67 67 68 69 70 70 70 71 71 71 71 71 72 73 73 73 73
66 65 65 64 64 62 61 61 60 60 61 61 62 63 63 64 65 66 66 65 65 65 65 65 65 66 66 67 67 67 66 66 66 66 66 66 67 67 67 67 68 68 68 69 69 69 69 69 69 70 70 71 71 71 71 71 71 72 72 73 74 75 74
66 67 68 68 67 67 66 65 64 63 62 62 63 64 65 67 67 68 69 68 68 68 68 68 68 69 69 70 70 70 70 70 70 70 69 69 69 69 69 70 70 70 71 71 71 72 71 72 72 72 73 73 73 73 73 72 72 73 73 74 75 76 76
65 66 68 69 70 70 69 68 67 65 63 64 66 67 68 70 70 70 70 70 70 70 70 71 72 72 73 73 73 73 73 73 73 73 73 72 72 72 72 72 72 72 72 73 74 74 74 74 75 75 75 76 75 75 75 75 75 74 74 75 76 78 78
63 66 67 69 70 71 70 70 69 67 66 67 70 72 73 73 73 73 73 72 72 72 72 73 75 75 76 76 76 76 77 77 77 76 76 76 76 76 76 75 75 75 74 75 75 75 76 76 77 77 78 78 78 78 77 78 77 77 77 77 78 79 80
64 66 67 66 67 69 70 70 70 69 70 71 72 76 78 77 76 75 75 75 74 74 74 75 77 78 78 79 80 80 80 80 79 79 79 79 80 80 79 79 79 78 77 77 77 78 78 78 78 79 79 79 80 80 80 80 80 79 79 79 80 81 81
64 67 67 66 65 66 68 69 69 69 71 72 73 76 78 78 78 78 78 78 78 77 77 78 79 80 80 81 82 83 83 82 82 82 82 83 83 83 83 82 82 82 81 81 81 80 80 80 80 81 81 81 80 81 81 81 81 82 82 81 81 82 83
66 67 67 67 67 66 66 67 68 68 70 72 74 76 76 76 78 79 80 80 80 80 81 82 82 83 83 84 85 85 85 84 84 85 85 85 85 85 85 85 85 85 85 85 84 84 84 84 83 83 83 83 83 82 82 83 83 83 83 83 83 84 84
67 67 68 68 68 67 67 67 67 68 69 71 74 77 77 76 76 78 80 81 82 82 83 85 86 87 87 87 87 87 86 86 86 86 87 87 87 87 87 87 87 88 88 88 87 87 87 87 87 86 86 86 85 85 85 85 86 86 85 85 85 86 86
68 68 69 69 69 68 68 67 67 67 69 71 73 75 77 77 77 77 79 81 83 84 85 86 88 90 91 91 90 90 89 88 88 88 88 88 88 88 88 89 89 89 90 90 90 89 89 89 89 89 89 89 88 88 89 89 89 89 89 89 89 89 89
69 69 70 70 70 70 70 69 69 68 68 70 72 74 75 77 78 78 79 81 84 86 86 88 90 92 93 93 94 93 93 92 91 91 90 90 89 89 90 90 90 90 90 91 90 90 90 90 91 91 90 90 90 91 91 92 92 92 93 92 92 92 92
71 71 71 71 71 71 71 71 70 70 69 70 71 72 74 76 77 78 78 80 83 85 87 89 92 94 94 94 95 95 95 95 94 94 94 93 92 92 92 91 91 91 92 91 91 91 91 91 91 91 91 91 92 92 93 94 94 95 95 95 95 95 95
71 72 72 72 72 72 72 72 71 71 71 71 71 72 73 75 76 78 78 79 81 84 86 89 92 94 95 95 96 96 95 96 96 96 97 97 96 96 95 95 94 93 93 93 93 92 92 92 92 92 92 92 92 93 94 95 96 96 97 97 96 96 97
72 72 72 73 73 73 73 72 72 71 71 72 72 72 73 74 75 76 77 79 81 84 86 89 92 93 94 95 96 95 95 95 95 95 96 96 97 97 97 97 97 97 96 96 96 96 95 95 94 94 94 94 94 95 95 96 97 98 98 98 98 98 98
72 73 73 72 72 72 72 72 72 72 72 72 72 73 73 74 74 74 76 78 81 84 86 88 91 93 94 96 97 97 96 94 94 94 94 95 95 95 96 96 96 97 97 97 98 99 99 98 98 97 97 97 98 99 99 101 101 102 102 101 100 100 100
72 72 73 73 72 72 73 73 73 72 72 73 73 73 73 72 72 73 75 77 80 82 85 88 91 93 95 97 98 99 98 96 95 94 94 94 94 93 94 94 95 94 94 95 96 96 97 98 97 98 98 99 100 101 103 105 106 107 107 107 106 105 105
73 73 73 73 73 73 73 73 74 73 73 73 73 73 72 72 71 72 73 75 77 80 83 86 90 93 96 97 98 99 99 98 96 95 94 93 92 91 90 90 91 91 91 91 91 91 92 91 91 91 92 93 94 96 99 102 105 108 110 111 110 109 108
73 73 74 74 74 74 74 74 73 73 73 73 71 71 71 71 71 72 72 73 75 78 81 84 87 90 92 95 96 98 98 97 96 95 94 93 92 90 87 85 84 83 84 84 84 84 85 84 84 83 84 85 88 91 94 97 102 107 110 111 111 111 111
73 73 73 74 74 73 73 73 72 71 70 70 69 69 70 71 70 70 70 71 74 77 79 80 83 85 88 90 93 95 96 96 96 95 94 93 92 90 87 83 80 78 77 76 77 77 78 79 80 81 82 84 87 90 94 98 103 105 106 107 107 108 108
72 72 72 73 73 72 71 70 69 67 66 66 67 68 69 69 69 68 68 70 73 75 76 77 79 81 84 86 89 91 92 93 93 93 92 92 92 89 86 84 81 77 74 72 71 72 72 73 74 75 77 79 82 87 93 99 102 102 100 98 98 98 98
69 69 69 70 70 69 68 67 65 63 63 63 64 65 66 67 68 69 69 70 72 74 74 75 76 78 80 82 84 86 87 89 89 89 89 89 89 88 86 83 81 78 75 72 69 68 67 67 67 68 70 74 79 86 92 95 95 93 90 87 85 84 85
66 66 66 66 66 65 64 63 62 61 61 61 61 62 63 65 67 68 69 70 72 73 73 73 74 75 76 77 78 80 81 83 84 84 84 84 84 83 83 81 79 77 74 71 68 65 63 62 63 65 70 76 81 85 87 87 85 81 77 73 72 72 73

ECMWFFLT1_250_spd_030.txt.gz
Wind_Speed
27 27 27 28 28 29 30 30 31 31 31 32 32 33 34 34 35 35 36 36 37 37 37 37 38 39 40 42 44 45 45 44 44 44 43 42 44 45 43 42 41 39 38 37 36 38 40 40 38 36 35 35 36 37 38 37 35 31 30 31 34 35 35
29 29 29 29 29 30 30 31 32 32 32 33 33 34 34 34 35 36 36 36 36 37 37 37 37 38 40 41 44 46 46 47 48 46 45 44 43 45 45 45 45 44 42 40 38 39 43 44 41 38 37 39 42 42 43 43 39 36 34 33 34 35 36
31 32 32 32 32 32 32 32 32 33 33 34 34 34 35 35 35 36 36 36 36 36 37 37 37 38 40 42 44 46 47 49 51 49 49 48 45 44 46 48 48 46 46 45 43 41 44 46 45 43 42 45 46 45 45 46 42 40 41 41 39 39 40
34 34 35 34 34 34 34 34 34 34 34 35 35 35 35 36 36 36 36 36 36 36 37 37 37 38 39 41 44 46 47 49 53 53 53 53 50 46 46 49 50 49 48 47 47 46 46 47 47 45 45 48 49 48 46 45 43 41 42 43 44 43 42
37 37 37 37 37 37 37 36 36 36 36 36 36 36 36 37 37 37 37 37 37 37 37 38 38 38 39 41 43 46 47 48 51 55 55 55 55 53 50 51 52 52 50 49 49 49 50 51 51 49 48 50 51 52 51 48 46 45 43 44 45 45 44
40 40 40 40 39 39 39 39 38 38 37 37 37 37 37 37 38 38 38 38 38 38 38 39 39 39 40 41 43 45 46 47 49 53 55 55 55 56 55 54 54 53 53 52 51 52 53 54 56 56 54 53 53 55 55 52 50 49 47 47 47 46 46
42 42 42 42 42 42 42 41 41 40 39 39 39 38 38 38 39 39 39 39 39 39 39 39 40 41 41 42 43 45 46 47 47 50 53 54 55 56 57 57 56 56 55 54 54 54 55 54 55 58 60 59 58 59 59 56 52 51 51 50 49 48 48
44 44 44 44 44 44 43 43 43 42 42 41 40 40 40 40 40 41 41 41 41 41 41 41 41 42 42 43 44 45 46 47 48 49 51 52 54 56 59 58 58 58 58 57 56 56 57 57 56 57 60 62 63 62 61 58 56 54 53 53 53 51 50
47 47 46 46 46 46 45 45 45 44 44 43 42 42 42 42 42 42 43 43 43 43 43 43 43 43 44 44 45 46 47 48 49 50 51 52 53 56 59 60 59 59 60 60 60 59 59 60 61 60 59 61 63 63 61 60 59 58 57 56 55 55 54
49 49 49 49 49 48 47 47 47 47 46 46 45 44 44 43 43 44 44 45 45 45 45 45 45 45 45 46 46 47 47 48 49 50 51 52 53 54 58 61 62 61 61 61 62 62 62 62 63 64 63 63 64 64 64 63 62 62 61 60 58 58 57
50 50 50 51 51 51 50 49 49 49 49 49 48 48 46 46 45 46 46 46 47 47 47 47 47 47 47 47 48 48 48 49 50 50 51 51 52 54 56 60 63 63 62 62 63 64 64 64 65 66 67 67 67 66 66 66 65 64 64 63 62 61 61
51 51 51 52 52 52 52 51 51 51 51 51 51 50 50 49 49 48 48 48 49 49 49 49 49 50 50 50 49 50 50 50 51 51 52 52 52 53 55 57 60 63 64 63 63 65 67 68 68 68 68 69 69 68 66 67 67 67 66 66 65 64 65
52 52 53 53 53 53 53 53 53 53 54 54 53 53 53 53 52 52 51 50 50 51 51 51 52 52 52 52 52 52 52 52 53 53 53 54 54 54 55 56 57 60 62 63 63 64 66 69 71 71 71 71 71 71 69 67 67 67 68 68 68 67 68
54 54 54 54 54 54 54 54 54 55 56 56 56 55 55 55 55 55 55 54 53 53 53 54 54 55 55 55 55 55 55 54 55 55 55 56 57 56 57 57 57 58 60 61 62 63 64 67 70 73 75 75 75 75 75 73 71 69 68 68 69 69 69
58 57 56 56 56 55 55 55 56 56 57 58 58 58 58 58 58 58 57 57 57 56 56 56 56 57 58 58 57 57 57 57 57 57 58 58 58 58 58 59 59 59 60 61 62 62 63 64 66 69 73 76 77 78 78 78 78 77 74 72 71 70 69
61 61 60 59 59 58 58 57 58 58 59 59 59 59 59 60 60 60 60 60 60 60 60 60 60 60 60 60 60 60 59 59 59 60 60 60 60 60 60 61 61 62 62 63 63 63 64 64 65 67 69 72 75 78 79 80 81 81 81 80 79 77 74
63 63 63 62 62 62 62 62 62 62 61 61 61 61 61 61 62 62 63 63 63 63 63 63 64 64 64 63 63 63 62 62 63 63 62 62 62 62 63 63 64 64 65 65 66 66 66 66 66 67 68 69 71 73 75 78 79 80 81 83 84 84 82
63 63 63 63 63 64 65 65 66 65 64 64 64 63 63 63 63 64 65 65 65 66 66 67 67 68 68 67 66 66 65 66 66 66 65 65 65 65 66 66 67 67 67 68 68 68 68 69 69 69 69 69 70 71 72 74 75 76 77 79 81 83 84
61 61 61 61 62 65 66 67 67 67 67 68 68 66 65 66 66 66 66 67 68 69 69 69 70 70 71 70 70 69 69 69 70 69 69 69 69 69 68 69 69 69 70 70 71 71 71 71 71 71 71 71 71 71 72 73 73 74 75 76 78 79 80
59 59 59 58 60 62 65 66 67 68 68 69 69 68 69 70 70 70 70 70 70 71 71 71 72 72 73 73 73 73 73 74 74 73 73 72 72 72 72 72 72 72 72 72 73 73 74 74 74 74 74 74 73 73 73 74 74 74 75 76 76 77 78
58 58 58 58 59 61 63 65 65 66 67 69 68 68 70 72 72 71 72 73 74 74 73 73 73 74 75 76 76 76 76 77 77 77 77 76 76 76 76 76 76 76 76 75 75 75 75 76 76 77 77 77 76 76 76 76 76 76 76 77 77 78 78
58 58 58 58 59 61 62 63 63 63 64 65 65 65 66 67 68 70 72 73 75 77 77 77 76 77 77 78 78 79 79 80 80 80 80 80 80 80 80 80 80 80 80 79 79 78 78 78 78 78 79 79 79 79 79 79 79 79 79 79 79 80 80
61 60 59 60 60 61 62 62 62 63 63 62 62 62 60 59 62 66 70 72 74 76 78 79 80 80 79 79 80 81 81 81 82 82 83 83 83 84 84 84 84 84 84 83 83 82 81 81 80 80 80 81 80 81 81 81 82 82 82 82 82 82 82
64 63 63 62 63 63 64 63 63 63 63 62 62 62 62 60 60 62 67 71 73 75 76 78 81 81 81 82 82 83 83 83 83 84 84 85 86 87 88 88 87 87 87 87 86 85 85 84 84 83 83 83 83 83 83 83 84 84 84 84 84 84 85
67 66 66 66 65 65 65 66 66 65 65 63 63 64 65 64 63 64 67 71 74 76 77 78 79 81 82 83 84 84 85 85 86 86 86 87 88 89 90 90 90 90 90 90 89 88 88 87 87 87 86 86 86 86 86 86 86 86 86 86 86 87 87
69 69 69 69 68 68 67 68 68 68 67 66 66 67 67 66 66 67 69 71 73 76 77 77 78 79 81 83 85 86 87 87 88 89 89 90 91 91 91 91 92 92 92 92 91 91 90 90 89 89 89 89 89 89 89 89 89 89 89 89 88 89 89
71 72 71 71 71 70 70 70 70 70 69 68 68 68 68 68 69 69 69 71 72 74 75 76 77 77 79 81 84 86 88 89 90 91 91 93 94 94 94 93 93 93 93 93 93 92 92 92 92 92 92 92 92 92 93 93 93 93 93 92 92 92 92
73 74 74 73 73 73 73 73 72 71 71 71 70 70 70 70 71 70 70 70 71 72 73 74 75 76 77 79 82 84 86 88 90 91 93 94 95 95 96 95 95 95 95 94 94 93 93 93 93 94 94 94 95 95 95 95 96 96 96 96 96 95 96
74 74 75 75 75 75 74 74 73 73 72 72 72 72 72 72 72 72 71 71 71 71 71 72 73 75 76 78 80 82 84 87 89 91 93 94 95 95 95 96 97 97 97 97 96 96 95 95 95 95 95 95 96 96 97 98 98 99 99 98 98 98 98
76 75 76 75 76 76 75 74 74 74 74 73 73 72 72 72 72 72 71 71 71 71 72 72 73 74 75 77 79 81 83 85 87 89 91 93 94 95 95 95 96 97 98 98 98 97 97 97 97 97 97 97 97 97 98 99 99 99 99 99 98 99 99
77 77 77 77 77 76 76 75 75 74 74 74 73 73 73 72 72 71 71 71 72 72 73 73 73 73 75 76 78 80 81 83 85 87 89 91 93 94 95 95 96 96 96 96 97 97 98 98 98 99 99 100 100 100 100 101 101 100 99 98 98 99 99
78 78 78 78 78 77 77 76 76 75 74 74 73 73 73 72 72 72 72 72 72 73 73 73 73 74 74 76 77 78 80 81 83 84 86 88 90 92 94 95 96 96 95 95 95 95 95 96 96 97 98 98 99 100 101 102 102 102 101 101 101 101 101
78 78 78 78 78 78 77 77 77 76 75 75 74 73 73 73 72 72 72 72 73 73 73 74 74 74 74 75 75 77 79 80 81 82 84 86 88 90 92 93 95 96 96 95 94 92 91 91 91 92 93 94 96 97 99 99 100 100 101 101 102 103 103
78 78 78 78 78 78 77 77 77 77 76 75 75 74 74 73 73 73 73 73 73 74 75 75 74 73 73 73 74 76 78 78 79 80 82 83 85 87 89 90 92 94 95 95 94 92 90 87 86 85 86 88 90 92 93 93 93 94 95 97 98 100 101
76 77 77 78 78 78 77 77 77 77 77 76 75 75 74 74 74 74 74 73 74 75 75 75 75 75 74 73 73 74 75 76 77 78 79 80 82 84 85 87 88 90 91 92 92 92 90 88 85 83 82 82 82 83 84 84 84 85 87 88 91 93 95
72 73 75 76 76 76 76 77 77 77 76 76 75 75 74 74 74 74 73 74 74 75 76 77 77 77 76 74 73 72 72 73 74 74 75 76 78 80 82 83 84 85 86 87 88 88 88 87 85 83 82 80 78 76 76 75 76 77 79 81 83 86 89
69 70 71 72 72 72 72 73 74 74 75 74 74 73 73 73 73 72 73 73 74 74 75 76 76 76 75 73 72 71 70 70 70 71 72 73 74 75 77 78 79 80 81 82 83 83 83 82 81 79 77 75 74 72 71 70 71 72 74 77 80 83 86

ECMWFFLT1_250_spd_033.txt.gz
Wind_Speed
26 27 28 28 29 29 29 29 29 29 29 29 29 30 30 30 31 33 35 35 36 36 37 38 39 41 43 46 49 53 55 56 55 52 49 46 42 40 39 37 38 38 37 39 41 41 43 42 40 37 37 39 38 38 42 42 41 41 41 40 39 39 37
26 27 27 27 28 29 29 29 30 30 30 30 31 31 31 30 31 32 35 36 36 37 37 38 39 40 41 42 44 48 51 54 57 56 54 51 46 43 43 42 40 39 38 39 39 38 40 42 41 40 40 40 40 40 41 40 39 39 39 37 36 36 36
28 28 28 28 28 29 29 29 30 30 30 31 32 32 32 32 32 32 34 36 36 37 37 38 39 39 40 41 42 45 47 50 55 57 55 53 50 47 46 46 44 43 42 41 39 38 39 40 40 41 42 41 42 44 44 43 40 39 39 38 38 38 36
31 30 30 30 30 31 30 30 30 30 31 31 32 32 33 34 34 34 35 35 36 37 38 38 39 39 40 40 41 43 45 47 51 55 56 54 53 52 49 48 46 47 48 46 43 41 40 40 40 41 43 43 43 46 47 46 44 42 42 42 42 43 41
35 34 33 33 33 33 32 32 32 32 32 32 32 33 33 34 35 36 36 36 37 37 38 39 39 39 39 40 41 42 44 46 48 52 55 55 55 55 54 51 49 49 53 52 48 45 43 42 42 42 43 44 44 45 47 48 47 46 46 45 44 45 47
38 37 37 37 37 36 35 35 34 33 33 33 33 33 33 35 36 37 37 38 38 38 39 39 40 40 39 39 41 42 43 46 48 50 52 55 56 57 58 56 52 50 53 56 54 50 48 47 46 45 45 45 45 45 47 48 48 47 46 46 46 48 50
40 40 40 40 40 40 39 38 37 36 35 35 35 35 35 35 36 37 39 39 39 40 40 41 41 41 41 40 40 42 43 45 47 49 51 53 55 59 60 58 56 52 52 56 57 55 53 51 50 50 49 48 47 47 49 50 50 50 50 50 51 51 52
44 44 44 43 43 43 42 41 41 40 39 38 37 37 37 37 38 38 39 40 40 41 41 42 43 43 42 42 41 42 43 44 46 49 51 52 54 58 61 59 57 56 53 54 57 58 57 56 55 54 53 52 51 49 50 52 53 53 53 54 55 55 56
49 48 47 47 46 46 45 44 44 43 43 42 41 41 40 40 40 40 40 41 41 41 42 42 43 44 44 44 43 43 44 44 45 48 51 53 54 56 60 59 57 58 58 56 55 58 60 60 59 58 56 55 55 54 54 54 55 55 55 55 56 58 59
51 51 51 51 50 50 48 47 47 46 46 45 45 44 43 43 43 43 43 42 42 42 43 43 44 45 46 46 45 45 45 45 45 47 50 53 55 56 58 59 57 58 61 61 58 57 59 62 63 62 60 58 57 57 58 59 59 59 59 59 60 61 62
51 52 52 52 53 53 52 51 50 49 49 48 48 48 47 46 45 45 45 45 44 44 44 45 45 45 46 47 48 47 46 47 47 47 49 51 55 57 57 59 59 58 60 64 65 63 60 61 64 65 64 62 61 59 59 61 63 64 64 64 64 65 65
51 52 52 53 53 53 53 53 53 53 53 52 52 51 51 50 49 48 48 47 47 47 47 47 47 47 47 48 49 50 49 49 49 49 50 51 54 57 59 59 60 59 60 61 65 68 67 64 63 65 67 66 65 64 62 61 62 64 66 67 67 67 67
50 51 52 53 53 53 53 53 53 54 55 55 55 55 54 54 53 51 51 50 50 50 50 49 49 49 49 49 50 51 52 52 52 52 52 53 53 56 58 60 61 61 62 62 62 66 69 69 66 65 67 69 68 68 68 66 65 64 64 65 67 68 68
52 53 53 53 53 53 53 53 54 55 56 56 57 57 57 56 56 55 54 53 53 53 53 53 53 52 51 51 52 52 53 54 55 55 55 55 55 56 57 60 62 63 63 64 64 64 66 69 69 67 67 69 70 71 71 71 71 70 67 65 65 66 67
56 56 55 55 54 53 52 53 54 55 56 57 57 57 57 57 57 57 56 56 56 56 56 56 56 56 55 54 53 53 54 55 56 56 57 57 57 57 58 60 61 63 64 65 65 65 65 67 69 70 69 69 71 73 74 74 74 75 74 72 70 67 66
60 58 58 59 56 54 54 54 55 56 56 57 58 58 58 58 58 58 58 59 59 59 59 59 59 59 58 57 56 56 56 56 57 58 58 58 58 59 60 61 62 64 65 66 66 66 67 67 68 70 71 71 71 72 74 77 77 77 77 77 76 75 72
62 60 61 61 59 58 56 53 54 58 59 59 59 58 58 58 59 60 60 61 61 61 61 61 61 61 61 60 60 60 59 59 59 59 60 60 60 61 61 62 63 64 66 67 67 67 68 68 69 70 71 72 72 72 73 75 77 79 80 80 80 80 79
64 64 63 62 61 60 57 51 50 56 61 63 64 62 60 59 60 61 62 62 62 62 62 63 63 63 64 64 63 63 63 63 63 63 63 63 63 63 63 63 64 65 66 67 68 69 69 69 70 71 72 73 74 74 74 75 76 77 79 81 82 83 82
60 64 63 61 61 61 59 56 51 51 55 60 64 65 64 63 62 63 63 63 63 63 63 63 64 65 66 67 67 67 66 67 67 67 66 66 65 65 65 65 66 66 67 67 68 69 70 71 72 72 72 73 74 75 76 77 78 78 78 79 81 83 84
55 61 62 60 60 60 61 61 60 60 60 61 64 65 66 66 65 64 62 63 64 65 65 65 66 67 68 69 69 70 70 69 70 70 70 70 69 69 68 68 68 68 69 69 70 70 71 72 73 74 74 74 75 75 76 78 79 80 80 80 80 81 83
58 62 62 61 61 60 60 61 64 67 68 66 66 66 66 66 64 62 63 65 65 64 65 67 68 70 71 71 71 71 72 72 72 73 73 73 73 73 73 72 72 72 72 72 72 72 73 73 74 75 76 76 77 77 78 79 79 80 80 81 82 82 81
60 61 62 62 62 61 60 60 62 64 64 63 63 64 65 64 60 57 60 64 65 63 62 65 69 72 74 74 73 73 73 74 74 75 76 76 76 77 76 76 76 76 76 76 76 75 75 76 76 76 76 77 78 78 79 80 81 82 82 82 83 84 84
61 62 62 62 61 61 61 61 62 62 62 62 61 61 62 62 59 56 56 60 62 60 58 62 68 73 75 75 76 76 76 76 76 76 77 78 79 79 79 79 79 79 80 80 80 79 78 78 78 78 79 79 79 79 79 80 81 82 83 84 84 85 85
63 64 64 63 63 63 62 62 63 63 63 62 61 61 61 60 59 58 58 60 61 57 57 62 68 71 74 76 76 77 78 78 79 79 80 81 81 82 82 82 82 82 83 83 83 82 82 82 82 81 81 82 81 81 81 81 81 82 83 84 85 86 87
66 66 66 66 66 66 65 65 65 64 64 63 62 62 62 61 61 61 61 63 62 59 62 66 69 70 73 74 74 75 77 78 80 82 83 83 84 84 83 84 84 85 85 86 86 86 85 85 85 85 85 85 85 84 84 83 83 84 84 84 85 86 87
68 69 69 69 69 69 69 68 67 66 66 66 65 64 64 64 64 63 63 64 63 64 67 69 69 70 71 72 73 74 74 75 79 82 84 85 86 86 86 86 86 87 87 88 88 88 88 88 88 88 88 88 88 88 87 87 87 87 87 87 87 87 88
71 71 71 72 72 72 72 71 70 70 69 68 67 67 68 68 67 65 65 64 63 67 71 71 70 70 70 71 72 73 73 73 76 79 81 83 85 86 87 87 87 88 89 89 89 89 90 90 91 91 91 91 91 92 92 91 91 91 91 91 90 90 91
72 72 72 73 74 74 74 74 73 73 72 71 70 69 70 71 70 68 66 64 65 69 72 71 71 71 72 72 73 74 74 75 76 77 78 80 82 84 86 86 87 89 89 90 90 91 92 92 93 93 93 93 94 95 95 95 95 95 95 95 94 94 94
72 72 73 73 74 75 75 75 75 75 74 73 72 71 72 73 72 70 68 67 68 71 71 70 71 72 73 74 75 75 75 76 76 77 78 80 81 82 83 85 86 87 89 90 90 91 93 94 95 95 95 95 96 97 97 98 98 98 98 98 97 96 96
74 74 74 74 75 75 75 75 75 75 74 73 73 72 72 72 72 71 70 69 70 71 71 71 72 72 74 75 76 76 76 76 76 77 78 80 81 82 82 83 84 86 87 89 90 90 92 94 96 96 97 97 98 98 99 100 100 100 100 100 99 99 99
77 77 76 76 77 77 76 76 76 76 75 75 74 73 72 72 71 70 70 71 71 71 72 72 73 74 75 75 76 76 77 77 77 77 78 79 80 81 81 82 83 85 86 87 89 90 92 93 94 94 96 97 99 100 101 102 103 102 101 101 101 101 101
79 79 79 79 79 78 78 78 77 77 76 76 75 74 73 73 72 71 71 71 71 71 72 72 73 74 75 76 76 77 78 78 78 78 79 79 80 80 81 82 83 84 85 86 88 89 90 92 92 93 94 95 96 98 100 102 103 104 104 103 103 103 103
80 80 80 80 80 80 80 79 79 79 78 77 76 75 74 74 74 73 72 72 72 72 72 72 72 73 74 75 76 77 78 78 78 78 78 79 79 80 81 81 81 81 83 84 86 88 89 90 91 92 93 94 94 95 97 98 99 101 102 104 105 105 106
80 80 80 80 80 80 80 79 79 80 79 78 77 76 75 75 75 74 74 73 73 72 72 72 72 73 74 75 76 76 77 77 77 77 77 78 78 79 79 80 79 79 80 82 84 85 87 88 89 90 92 93 93 94 94 94 95 95 96 98 100 102 104
79 79 79 79 79 79 79 78 79 80 79 78 77 77 76 76 76 76 75 75 74 73 73 73 73 73 74 74 75 75 76 76 76 75 76 76 77 77 78 79 78 78 79 80 81 82 84 85 87 88 89 90 91 92 93 92 92 92 91 91 92 93 95
77 77 76 76 76 76 76 76 77 78 77 76 76 76 76 76 76 76 75 75 75 75 74 74 74 74 74 74 75 75 75 75 74 74 74 75 75 76 76 77 77 77 78 78 79 80 81 82 84 85 86 87 88 89 89 89 89 89 88 88 87 87 87
72 72 71 72 72 71 71 72 73 73 73 73 73 73 74 74 74 74 74 74 75 74 74 74 74 74 74 75 75 75 75 74 73 73 74 74 74 75 75 75 75 76 76 76 77 77 78 79 80 81 82 83 84 84 83 83 83 83 83 84 84 84 84

ECMWFFLT1_250_spd_036.txt.gz
Wind_Speed
28 28 28 29 29 29 29 29 30 31 31 32 33 34 34 34 35 35 36 38 39 40 41 43 44 45 47 49 52 55 57 56 53 51 47 43 43 43 42 44 44 41 42 46 48 49 48 47 46 44 43 42 41 40 39 40 42 43 44 44 42 42 42
28 28 28 28 28 29 29 29 30 30 31 32 32 33 33 33 34 34 34 35 37 38 39 41 42 43 45 46 48 51 54 57 57 55 53 48 46 46 44 46 45 41 40 44 46 48 48 48 48 47 46 45 44 43 42 41 42 44 46 46 43 43 44
31 30 29 28 28 28 29 29 30 30 31 31 32 32 33 33 33 33 33 34 34 35 37 39 40 41 42 43 45 46 49 52 54 55 56 53 50 49 47 47 46 43 41 43 44 45 46 47 48 49 49 48 47 46 45 44 41 40 43 45 43 43 45
34 33 32 30 29 29 29 29 30 30 31 31 32 32 33 33 33 34 34 35 34 34 35 37 39 41 41 41 42 43 44 47 50 52 54 55 54 53 52 50 48 45 44 44 44 45 46 46 47 49 50 50 49 48 47 46 43 40 40 43 43 43 44
37 36 35 33 32 30 30 30 30 30 31 31 32 33 33 33 34 34 35 35 35 34 34 34 37 39 41 41 41 41 42 43 45 48 51 54 55 57 57 55 52 49 47 46 45 44 46 47 47 48 50 50 49 49 48 47 46 43 42 43 44 44 45
40 39 38 37 36 34 32 31 31 31 31 31 32 32 33 34 34 35 35 36 36 36 35 35 36 38 40 41 41 41 42 43 43 45 47 51 54 56 58 59 58 55 52 50 49 46 46 47 48 49 50 49 48 49 48 46 45 44 43 44 45 45 47
44 43 41 40 39 38 36 35 34 33 32 32 32 33 33 34 35 35 36 36 36 36 37 37 37 38 39 40 41 42 43 43 44 44 45 47 51 54 56 59 61 61 59 56 53 51 49 48 49 49 49 48 47 47 47 45 44 44 44 44 45 47 48
45 45 44 43 43 42 40 38 37 36 35 35 34 34 35 35 36 36 37 38 38 38 38 39 39 40 40 41 42 42 42 43 44 45 46 46 48 51 54 57 60 62 64 62 59 56 53 50 50 50 51 50 49 47 47 46 45 45 45 46 46 48 50
46 46 46 45 45 44 43 41 41 40 39 39 38 37 37 37 38 38 38 39 39 40 40 40 41 41 41 41 42 43 43 43 45 46 46 47 48 50 52 55 57 60 63 64 63 62 59 54 51 51 52 53 51 49 48 48 47 46 47 48 48 49 51
46 46 46 46 46 46 46 44 44 43 43 42 42 41 41 40 40 40 40 40 40 40 41 41 42 43 43 43 43 43 44 44 45 46 47 47 48 50 52 53 55 58 61 62 64 65 64 60 55 52 53 55 54 52 51 50 50 49 50 50 49 50 52
46 47 47 47 47 47 46 46 46 46 46 46 46 45 45 44 44 43 42 42 42 42 42 42 42 43 44 45 45 45 45 45 46 47 47 48 49 50 52 54 55 57 59 61 63 65 67 66 62 56 55 57 57 55 54 54 54 54 54 53 52 53 53
47 47 47 48 48 48 47 48 48 48 48 48 49 49 49 48 47 47 46 46 45 45 44 44 43 44 45 46 46 46 46 46 46 47 48 49 50 51 52 53 55 56 58 60 62 65 67 69 69 64 58 58 61 60 58 56 57 57 58 57 57 56 56
48 47 47 47 48 48 48 48 49 50 50 51 51 51 51 51 50 50 50 50 49 48 47 46 45 45 46 46 47 48 48 48 48 48 49 50 51 52 53 54 55 57 58 60 61 63 66 68 70 68 63 59 61 65 64 62 60 59 60 61 60 60 60
51 49 48 48 48 48 48 48 49 50 51 52 52 52 52 52 52 52 52 52 52 51 50 49 48 48 48 48 48 49 50 50 50 50 51 51 52 53 54 55 56 57 59 60 62 63 65 67 68 68 67 63 60 63 67 67 66 63 62 62 62 63 63
55 53 52 52 51 50 50 50 51 51 51 52 52 52 52 52 53 53 53 53 52 52 52 52 52 52 51 51 51 51 52 53 53 53 53 53 53 54 55 56 57 58 59 61 63 64 65 67 67 67 67 66 63 62 64 67 69 69 68 67 65 64 64
58 57 58 57 55 55 55 55 54 54 54 53 52 51 52 52 53 53 53 53 53 53 53 53 54 55 55 55 55 55 55 55 55 55 55 55 55 55 56 57 58 59 60 61 62 64 65 67 68 69 69 68 67 66 65 66 68 70 72 73 72 71 68
59 59 60 59 57 57 58 58 57 56 57 57 54 53 53 54 54 52 52 53 53 53 54 54 55 56 57 58 58 58 58 58 58 58 58 57 57 57 58 59 60 60 61 62 62 63 65 67 68 70 71 70 70 70 69 69 69 70 71 73 75 77 76
60 59 60 60 59 59 60 59 57 57 59 59 56 54 54 55 55 54 54 54 55 56 56 56 56 57 59 59 60 61 61 61 61 61 61 61 60 60 60 60 61 62 63 63 64 64 65 66 68 70 71 72 72 72 72 72 73 74 74 74 74 76 78
59 59 59 59 59 59 60 57 53 54 57 57 56 55 55 55 56 57 57 57 59 58 58 58 58 57 58 60 61 62 63 63 63 63 63 64 63 64 64 64 64 64 64 65 66 66 66 67 68 69 71 72 73 74 74 74 74 75 76 78 78 77 77
58 58 57 57 57 58 58 56 53 51 48 47 49 53 55 55 54 54 53 55 59 57 54 56 58 60 61 62 63 63 64 64 64 65 66 66 67 67 67 67 67 67 67 67 67 68 68 69 69 70 70 72 73 75 76 77 77 77 77 78 79 80 79
57 57 56 56 56 55 56 56 56 52 44 40 41 45 48 50 51 51 50 52 55 55 53 51 53 58 63 65 65 66 66 65 65 66 67 68 69 69 70 70 70 70 70 70 70 69 70 70 71 71 72 72 73 74 76 77 78 79 80 80 81 81 82
56 56 56 57 56 56 55 55 56 54 49 46 45 43 40 42 47 51 54 54 53 54 55 53 52 56 61 63 65 67 68 68 69 70 70 70 70 70 71 72 72 72 73 73 72 72 72 72 72 73 73 73 74 75 76 77 78 79 81 82 83 84 84
57 57 57 57 57 57 57 56 56 56 56 55 54 52 48 45 47 50 54 56 56 56 58 58 58 59 62 64 66 67 68 69 70 71 71 71 72 72 72 73 73 73 74 75 75 74 74 75 75 75 75 75 75 76 76 77 78 79 80 81 83 85 86
59 59 59 59 59 59 59 58 58 58 60 61 61 61 60 58 57 56 55 58 60 61 62 63 63 63 64 66 68 69 69 70 70 70 71 71 73 74 74 74 74 74 75 76 76 77 77 77 77 77 77 77 77 78 78 79 79 80 81 81 82 84 85
61 61 61 61 61 61 61 61 61 61 62 64 65 65 65 65 64 63 62 62 62 63 64 67 69 68 67 68 68 68 70 71 72 73 73 73 73 74 75 76 76 76 77 78 78 78 78 79 79 79 79 80 80 80 81 81 82 83 83 83 84 84 85
63 63 63 63 63 64 64 64 64 64 64 65 66 67 66 66 66 65 65 64 63 62 65 70 73 72 70 69 69 68 69 70 73 75 76 76 75 75 75 76 77 78 79 80 80 80 80 80 81 81 81 82 82 83 84 84 85 85 86 86 86 86 87
65 65 65 66 66 66 67 67 67 67 67 67 67 68 67 67 67 67 66 64 64 65 68 71 73 73 71 70 70 70 70 71 73 75 76 76 75 75 74 75 76 77 79 80 81 81 82 83 83 83 83 84 84 85 86 87 88 88 89 89 89 89 90
66 67 67 68 69 69 69 69 70 69 69 69 69 69 69 69 69 68 66 65 66 69 71 72 73 72 72 72 73 73 73 73 73 75 75 75 75 75 75 75 75 76 77 78 79 79 81 83 85 86 86 87 87 87 88 89 90 91 91 92 92 92 93
68 68 68 69 70 70 71 71 71 72 72 72 72 71 71 71 70 70 68 68 70 72 73 73 72 73 73 74 75 75 75 75 75 75 75 75 76 76 76 76 77 77 77 77 76 77 79 80 82 84 85 87 88 89 91 92 92 93 93 94 94 94 95
70 70 70 70 70 70 71 71 71 72 72 73 73 72 71 71 72 72 72 72 73 73 73 73 74 74 75 76 76 76 76 76 76 76 77 77 78 78 79 79 78 78 78 78 77 78 79 80 81 81 82 84 86 88 90 92 94 94 95 96 96 96 97
72 71 71 71 71 71 71 71 71 71 71 72 72 71 71 72 73 74 73 73 73 74 74 74 74 75 76 76 77 77 77 77 77 78 78 79 79 80 80 80 80 79 79 79 79 80 80 81 82 82 83 83 85 86 88 89 90 92 94 96 97 98 99
73 73 73 73 73 73 72 72 71 71 71 71 71 70 72 74 74 74 73 73 74 74 74 75 75 76 76 76 76 77 77 77 78 78 79 79 80 81 81 81 81 80 80 81 81 81 81 82 83 84 84 85 85 86 87 88 88 89 90 92 94 97 99
74 74 75 75 75 75 74 74 73 73 72 71 70 71 74 75 74 73 73 74 75 75 75 76 76 76 76 76 77 77 77 78 78 79 79 80 80 81 81 81 81 81 81 81 82 83 83 83 84 85 85 86 86 87 87 87 88 88 89 90 91 93 95
75 75 76 76 76 76 76 75 75 75 73 71 72 74 74 73 72 72 73 75 75 76 76 76 76 77 77 77 77 78 78 78 78 79 79 79 80 80 81 80 80 80 80 81 82 83 83 84 84 85 86 86 86 87 87 87 88 88 89 90 91 92 93
75 76 76 77 76 76 77 76 75 76 74 72 74 76 74 71 71 72 73 74 75 76 77 77 76 77 77 77 77 78 78 78 78 78 78 79 79 80 80 79 78 78 79 81 81 82 82 83 83 84 84 85 85 85 85 85 86 87 88 89 90 91 92
76 76 76 76 76 77 76 75 75 76 75 74 75 76 74 72 72 72 72 73 74 75 76 76 76 76 76 76 76 76 77 77 77 77 77 78 78 78 79 78 78 78 79 80 80 81 81 82 82 82 82 83 83 83 83 83 84 84 85 86 87 88 90
74 74 74 75 75 76 75 74 74 75 75 74 74 74 74 74 73 72 72 72 72 73 74 74 75 75 75 75 75 75 75 76 76 76 76 76 76 76 77 77 77 77 78 79 79 79 80 80 79 80 80 81 81 81 82 82 82 82 82 83 83 84 86

ECMWFFLT1_250_spd_039.txt.gz
Wind_Speed
40 39 38 36 36 35 34 33 32 32 32 33 33 34 34 35 36 36 36 36 37 38 38 39 39 40 41 42 43 44 45 47 49 51 53 54 53 50 46 45 45 44 45 47 47 47 46 45 45 45 43 40 39 38 37 37 37 37 38 40 42 43 42
42 41 39 38 37 36 35 34 33 32 32 32 33 33 33 34 34 34 35 35 35 36 36 36 37 38 39 41 42 42 44 45 46 48 50 52 55 54 50 47 47 47 47 48 49 48 48 47 47 47 46 44 42 41 40 39 39 39 39 41 41 41 41
44 43 41 40 39 38 36 35 34 34 33 32 32 33 33 33 34 34 34 34 34 34 35 35 36 36 37 38 39 40 41 42 43 45 47 49 52 56 54 51 49 48 48 48 49 50 49 48 47 48 48 47 46 44 43 41 40 40 41 42 42 41 41
45 44 43 42 41 40 39 37 36 35 34 34 33 33 33 33 33 34 34 34 34 34 34 35 35 35 35 36 37 38 39 40 41 42 43 45 48 51 54 54 52 49 47 47 48 48 48 48 48 49 49 50 49 47 45 44 43 42 42 43 44 44 43
46 45 44 44 43 42 41 40 38 37 36 35 34 34 33 33 33 33 34 34 35 35 35 35 35 35 35 35 36 36 37 38 39 40 41 42 44 46 48 51 53 52 48 47 48 48 48 49 49 49 50 51 52 51 49 47 46 45 44 45 46 46 45
45 44 44 44 44 43 43 42 42 40 38 36 35 35 34 34 33 33 33 34 35 36 36 36 37 36 36 36 36 35 36 37 38 39 39 39 41 42 43 45 50 53 52 50 49 50 50 49 48 47 48 50 53 54 53 50 49 48 48 48 48 48 48
44 43 43 43 44 44 44 44 44 43 42 40 38 37 36 36 35 35 34 34 35 36 37 37 38 38 38 37 37 36 35 36 37 39 40 40 40 40 41 42 45 49 53 53 52 53 53 52 50 47 46 48 50 53 54 53 51 51 51 50 49 50 51
42 42 42 42 43 44 44 44 44 44 44 43 42 41 39 38 38 37 36 36 36 36 37 38 38 38 38 39 38 37 36 36 36 38 40 41 41 40 40 41 42 45 49 52 54 56 57 57 55 52 49 48 48 49 51 53 53 53 53 52 51 52 53
43 43 43 43 44 44 44 44 44 44 44 45 45 45 44 42 41 40 39 38 37 37 38 38 38 38 38 39 39 39 39 38 38 38 39 40 41 41 41 42 42 43 45 48 52 55 58 60 59 57 54 52 51 49 49 50 53 53 53 53 52 53 53
45 45 45 45 46 46 45 44 44 45 45 45 46 47 47 46 45 43 42 41 40 39 39 39 39 39 39 39 40 40 41 40 40 40 40 41 41 42 42 42 43 43 44 45 48 51 56 60 62 61 59 56 55 53 51 50 52 54 54 53 54 55 55
46 45 45 45 46 47 46 45 45 46 46 45 46 47 48 48 48 46 45 44 43 42 41 41 41 40 41 41 41 41 42 43 43 43 43 43 43 44 44 44 44 44 45 45 46 48 51 56 60 62 62 60 59 58 56 52 52 53 54 54 54 55 55
49 46 46 48 48 48 48 49 48 47 47 47 47 47 48 49 49 48 47 47 46 45 44 43 42 42 42 42 43 43 43 44 44 45 45 45 45 45 46 46 46 46 47 47 47 48 49 52 56 59 62 62 62 62 61 58 54 53 53 54 56 56 56
53 51 49 48 47 47 48 49 50 50 49 49 49 49 49 49 49 49 49 49 48 48 47 46 46 45 45 45 45 45 45 45 46 46 47 47 47 48 48 48 48 48 48 49 49 50 51 51 53 56 59 61 63 64 64 63 60 57 54 54 56 57 58
54 53 50 47 45 46 48 49 51 51 50 50 50 50 50 50 50 50 50 49 48 48 48 48 49 49 49 48 48 48 48 48 48 48 48 49 49 50 50 50 50 49 50 50 51 51 52 53 53 55 57 59 62 63 65 65 64 62 59 57 56 57 60
56 56 53 51 50 51 51 50 50 49 49 50 51 52 52 52 51 51 50 49 48 49 49 50 50 51 51 51 51 51 51 51 51 51 51 51 51 51 52 52 52 52 52 52 52 53 54 55 55 56 57 58 60 62 63 65 66 65 64 62 59 59 60
51 54 56 59 60 60 57 54 52 51 51 52 53 55 55 54 53 52 50 50 50 51 51 52 52 53 52 52 52 52 53 54 54 54 53 53 52 53 53 54 54 54 54 54 54 54 55 56 57 58 58 59 60 61 62 64 65 66 66 65 63 61 61
49 50 55 60 63 65 64 61 59 59 58 56 56 58 59 58 56 55 54 54 54 54 54 54 54 53 54 54 54 54 54 55 55 56 56 55 55 55 54 55 56 56 56 56 56 56 57 57 58 59 60 60 61 62 63 64 65 66 67 68 67 65 63
60 60 64 66 65 67 68 68 67 67 65 63 61 62 62 60 58 58 59 59 58 58 57 56 55 55 56 56 56 56 56 56 55 56 56 57 58 58 57 57 58 58 59 59 59 58 58 59 59 60 61 62 62 63 64 65 65 66 67 69 70 69 67
65 67 70 71 70 69 70 71 71 71 70 68 66 65 64 62 59 59 60 60 60 59 58 58 58 58 59 59 58 58 57 57 57 56 56 57 59 61 61 60 60 61 61 61 61 61 61 61 60 61 61 62 63 64 64 65 66 67 68 69 70 72 71
64 66 68 69 70 69 69 70 70 70 69 68 66 65 64 62 60 59 59 59 60 60 60 60 60 61 61 60 60 59 59 59 58 57 58 59 60 61 62 62 62 63 63 63 63 63 63 63 63 63 63 63 64 65 65 66 66 67 68 69 70 72 73
61 62 63 64 65 65 65 66 66 66 65 65 63 62 62 60 59 58 59 59 58 58 59 59 61 62 62 62 62 62 61 61 60 59 59 60 62 63 63 63 63 64 65 65 65 65 65 65 65 65 65 65 66 66 66 67 67 68 68 69 70 71 72
60 60 60 60 61 61 61 62 62 62 62 61 60 59 59 57 56 56 56 57 56 57 57 57 58 60 61 64 65 65 64 63 60 59 59 60 61 63 65 65 65 65 65 65 65 66 66 67 67 68 68 68 68 68 68 69 69 69 70 71 72 72 73
58 59 59 59 59 59 59 59 59 59 60 60 59 57 56 56 55 54 53 53 54 57 58 58 58 57 57 59 61 62 63 64 62 60 59 59 59 60 63 65 66 66 66 66 66 66 67 68 69 70 70 70 70 71 71 71 71 71 72 72 74 74 75
58 58 59 59 59 59 59 59 59 59 59 59 59 57 56 56 57 57 56 55 55 57 59 60 58 55 54 53 54 55 58 59 60 59 60 60 61 61 61 62 64 65 66 66 67 67 68 69 70 71 72 72 73 73 73 74 74 74 74 75 76 76 77
58 59 59 59 59 59 59 59 59 59 59 60 60 59 57 57 58 59 59 58 56 57 60 61 59 56 55 53 51 52 54 56 57 59 61 62 63 63 63 64 64 64 65 66 67 67 68 69 70 71 72 74 74 75 75 76 76 77 77 77 78 79 79
58 59 59 60 60 60 60 60 59 60 60 60 61 60 59 59 60 60 59 59 58 59 61 63 62 60 59 58 56 57 59 60 62 63 64 65 66 66 67 67 67 67 68 69 69 69 69 70 71 71 72 73 74 75 76 77 78 79 80 80 80 81 82
59 59 60 60 61 61 61 61 61 61 61 61 61 62 61 61 61 62 61 61 62 63 64 66 66 66 66 67 67 67 67 68 68 69 69 69 70 71 71 71 71 72 72 72 72 71 71 71 71 72 72 73 74 75 76 77 79 80 81 82 82 83 85
60 61 61 62 62 63 63 63 63 63 63 63 63 63 62 62 63 63 64 64 66 68 69 69 69 70 72 73 74 74 73 72 71 71 71 72 72 73 74 74 74 75 75 75 75 74 73 73 73 73 73 73 74 76 77 78 79 80 81 83 83 84 86
63 63 63 63 64 64 65 65 65 66 66 66 65 65 64 65 65 66 67 68 69 70 70 70 71 72 74 75 76 76 75 74 74 73 73 73 74 75 75 75 76 76 77 77 77 76 77 77 76 75 74 74 74 75 77 78 79 80 81 83 84 85 86
65 65 65 65 66 66 66 66 67 67 67 67 67 67 67 68 68 68 69 70 71 71 71 72 73 74 75 76 77 77 77 77 77 76 76 76 77 77 77 77 77 78 78 77 78 78 79 79 79 78 78 77 77 77 77 78 79 80 81 83 84 85 87
68 68 68 68 68 68 68 68 68 67 67 67 68 69 70 71 71 71 72 72 72 73 73 73 74 76 77 77 78 78 79 79 79 79 79 80 80 80 79 79 79 79 79 79 79 80 80 80 80 80 80 80 80 80 80 80 80 80 81 82 83 84 85
71 70 70 70 70 70 69 69 69 69 68 68 68 70 72 73 73 73 74 74 74 74 74 75 75 76 77 78 79 79 80 80 81 81 81 82 82 82 82 81 81 81 81 81 82 82 82 82 82 82 83 84 84 84 84 83 82 82 83 83 83 84 84
72 72 72 72 72 72 72 71 71 71 69 69 70 71 73 73 73 74 74 75 75 75 75 76 76 77 77 78 79 80 80 81 81 81 82 82 83 83 83 82 82 82 83 83 84 84 84 84 84 85 86 86 87 87 87 87 86 85 85 85 85 85 85
74 73 73 73 73 74 73 74 74 72 71 70 71 72 72 72 73 73 74 74 74 75 76 76 77 77 78 79 79 80 80 80 81 81 82 82 82 82 82 82 82 82 83 84 84 84 84 85 86 87 87 88 88 89 89 89 88 88 87 87 87 87 87
74 74 73 73 74 75 75 76 75 74 72 72 72 73 72 72 72 72 72 72 73 73 74 75 76 76 77 78 79 80 80 81 81 82 82 82 82 81 81 81 81 82 82 83 83 83 83 84 85 86 87 87 88 88 89 89 89 89 88 88 88 88 88
74 74 74 74 74 75 76 77 76 75 73 72 72 72 72 72 72 72 71 71 71 71 72 73 74 75 76 76 77 78 80 80 81 81 81 81 81 81 80 80 80 81 81 81 82 82 82 83 84 85 85 85 86 86 86 87 87 87 87 87 87 88 88
73 73 73 73 74 75 75 76 75 74 72 71 71 71 71 72 71 71 71 70 70 70 70 71 71 72 73 74 75 77 78 79 79 79 80 80 80 80 80 79 79 79 79 80 80 81 82 82 82 83 83 83 84 84 84 84 85 85 85 85 85 85 86

ECMWFFLT1_250_spd_042.txt.gz
Wind_Speed
55 49 44 43 44 45 44 45 46 45 43 41 39 37 34 33 31 31 31 31 31 32 33 34 35 37 37 38 39 40 40 41 42 42 43 44 45 46 46 47 48 50 50 48 45 44 45 45 44 44 46 46 45 44 42 39 37 36 36 34 34 36 36
49 44 43 45 46 47 46 45 47 48 44 41 40 38 36 35 33 31 31 30 31 31 32 33 34 35 36 36 37 37 38 38 39 40 40 41 42 43 43 44 46 48 50 48 45 45 46 46 46 45 46 48 47 45 43 41 39 38 38 36 35 37 36
45 44 46 47 48 47 47 47 49 48 45 41 40 39 37 36 35 33 32 31 31 31 31 32 33 34 35 35 35 35 36 36 37 37 38 38 39 40 41 42 43 45 49 51 49 48 47 47 47 47 46 47 48 47 45 44 42 41 40 39 38 39 37
45 46 48 48 48 48 48 48 47 45 43 41 40 39 38 37 36 35 34 32 31 31 31 31 32 33 34 34 35 35 35 35 35 35 36 36 36 37 38 39 41 42 46 51 53 52 49 48 48 48 47 46 47 49 48 47 44 42 42 41 41 40 39
47 47 48 48 48 47 46 44 42 41 40 40 39 39 39 38 37 37 36 35 34 32 31 31 31 31 32 33 34 34 34 34 34 34 34 34 35 35 36 38 39 40 42 46 52 54 53 50 48 48 49 48 46 47 49 50 47 45 44 44 44 44 43
46 45 45 45 43 42 41 39 37 36 35 36 37 38 39 39 39 38 37 37 36 35 33 32 31 31 31 32 33 33 34 34 34 34 34 33 33 33 35 36 37 38 39 42 47 52 54 53 50 48 49 51 49 46 47 50 50 48 47 46 47 47 46
42 38 37 38 37 37 37 35 34 33 32 33 33 35 37 39 40 40 39 38 38 37 36 35 33 32 32 32 33 33 34 35 35 36 36 35 33 33 33 34 36 37 38 39 42 47 51 53 53 49 49 51 52 48 45 46 49 51 50 50 50 50 49
40 37 35 35 35 35 35 35 35 34 34 33 33 34 35 37 39 40 40 40 39 39 38 37 36 35 34 33 34 34 35 35 36 37 37 37 36 35 34 34 35 36 38 38 39 42 46 50 53 52 50 50 52 52 48 44 45 48 51 53 53 52 52
42 42 39 39 39 39 38 37 37 38 37 36 36 36 35 36 37 39 40 41 41 40 40 39 39 38 37 36 36 36 37 37 37 37 38 38 38 38 37 35 35 36 38 39 39 40 42 46 50 52 52 51 52 53 53 50 47 46 48 51 54 55 54
42 42 42 42 43 44 44 43 41 41 41 40 40 39 38 37 37 38 38 40 41 42 41 41 41 41 40 39 39 38 39 39 39 39 39 39 39 40 39 38 37 37 38 40 40 40 41 43 46 49 51 53 53 54 55 55 53 51 49 49 52 55 56
42 43 44 44 45 46 47 48 47 46 45 45 44 43 42 41 40 40 39 39 40 41 42 43 43 43 43 42 42 41 41 41 41 41 41 41 41 41 41 41 40 39 38 39 40 41 41 42 44 46 49 51 53 56 57 58 57 56 54 51 50 53 55
43 45 46 46 47 48 49 51 52 50 49 50 50 49 47 46 44 43 42 41 41 41 42 43 44 44 45 45 45 44 44 43 43 43 43 43 43 43 42 42 42 41 41 40 41 41 42 43 43 44 46 48 50 54 57 59 60 59 58 56 54 53 53
48 48 48 47 48 49 51 53 54 53 52 53 54 54 52 50 48 45 44 44 43 42 42 42 44 45 46 46 47 47 47 47 46 46 45 45 44 44 44 45 44 44 44 43 43 43 44 44 44 44 45 47 48 51 54 57 59 60 60 59 57 56 54
53 54 53 51 52 54 55 56 57 57 55 56 57 57 55 53 51 48 46 45 45 44 43 42 43 43 45 46 47 48 49 49 49 49 48 47 47 46 46 46 47 47 47 47 46 46 46 46 46 46 46 47 48 49 51 53 56 58 60 60 59 58 57
56 58 59 59 61 62 60 61 62 62 61 60 58 58 57 55 52 50 48 47 46 45 44 43 44 45 45 46 46 47 48 49 50 51 51 51 50 49 49 49 49 49 49 50 50 49 49 48 48 48 48 48 49 49 50 51 53 55 58 59 59 59 59
61 62 64 65 65 64 63 65 67 67 67 65 61 59 59 58 56 55 52 49 47 45 45 45 46 48 48 48 47 47 48 48 49 50 51 52 53 53 53 52 52 52 51 52 52 52 52 52 51 51 51 51 51 51 51 51 52 53 55 57 59 59 59
69 70 70 68 65 63 63 65 67 70 71 69 66 63 62 62 62 60 59 57 53 51 51 51 50 49 51 52 52 51 50 50 50 49 50 51 52 54 55 55 55 55 54 54 54 54 54 54 54 54 54 54 53 53 53 53 53 54 54 56 57 58 59
66 66 67 66 64 62 63 64 65 67 67 65 65 66 65 65 65 64 64 64 62 60 60 61 60 57 56 56 57 57 56 55 55 54 53 52 53 54 54 55 56 56 57 57 57 57 56 56 57 57 57 57 56 56 56 55 55 56 56 56 57 58 59
57 57 61 63 63 61 62 63 62 61 60 59 61 64 64 64 64 64 64 65 65 66 66 66 66 65 63 61 60 61 61 61 60 60 59 58 57 56 55 55 55 56 57 58 59 59 59 59 59 59 59 59 59 59 58 58 58 58 58 58 59 59 59
60 61 62 62 60 58 59 62 61 60 61 62 64 66 65 64 65 66 67 68 69 70 69 68 67 66 64 62 62 62 64 64 64 63 63 62 61 60 58 57 57 57 57 58 59 60 61 61 61 61 61 61 61 61 61 61 60 60 60 60 61 61 62
61 62 62 60 59 57 57 61 64 64 64 65 67 69 68 68 68 68 69 70 70 70 68 66 65 64 63 62 61 62 63 64 65 65 64 64 64 63 63 61 60 60 59 60 60 60 61 62 63 63 64 64 64 63 63 63 63 63 63 63 63 63 64
60 60 60 60 61 61 61 63 65 67 67 67 68 68 69 70 70 70 69 68 67 67 65 63 63 63 61 60 59 61 62 63 65 65 64 64 65 65 65 65 64 63 62 62 62 62 62 62 63 64 64 65 66 66 66 66 65 65 65 66 66 66 67
59 59 59 60 61 62 63 64 65 68 70 71 71 71 71 71 70 69 67 66 65 64 63 62 62 61 61 59 58 58 60 62 63 65 65 64 64 64 65 66 66 66 65 64 64 64 63 64 64 64 65 65 66 67 68 68 68 68 68 68 69 69 69
60 60 60 60 61 62 63 64 65 66 68 69 70 70 69 68 68 67 66 65 63 63 63 62 62 62 61 59 57 57 58 60 61 62 64 64 64 64 63 64 65 66 67 66 65 65 65 66 66 66 66 66 67 68 69 69 69 69 70 71 71 72 72
61 61 61 61 62 62 63 64 64 65 65 66 66 66 66 66 66 66 65 64 63 63 63 63 63 63 62 61 59 58 58 59 59 60 61 63 64 65 64 64 64 65 65 66 67 66 66 67 67 67 67 66 66 68 69 70 70 71 71 71 73 74 74
62 62 62 63 63 63 63 64 64 64 65 65 65 65 65 65 66 66 66 65 65 65 65 65 65 64 63 62 62 60 60 61 62 62 63 63 64 64 65 65 64 63 63 64 65 65 66 67 67 68 68 68 67 68 69 69 70 71 72 72 73 74 75
62 62 63 63 63 63 64 64 64 64 64 64 64 64 65 65 66 66 66 66 66 67 67 66 66 65 64 64 63 63 63 62 63 65 65 65 65 64 65 65 65 65 64 63 63 64 64 64 64 66 67 67 68 69 69 69 69 70 71 72 73 74 75
63 63 63 63 63 63 64 64 64 64 65 65 65 64 65 65 66 67 67 67 67 67 67 67 67 67 66 65 65 66 66 66 66 66 67 67 67 67 66 66 67 67 67 66 65 65 65 65 65 67 68 68 68 69 69 70 71 71 72 73 73 74 75
64 63 63 64 64 64 64 64 64 65 65 65 66 66 66 66 67 68 68 68 68 69 69 69 69 69 68 68 68 68 68 68 68 68 69 69 70 70 70 69 70 70 71 71 71 70 70 71 71 72 72 71 71 71 71 72 73 74 74 75 75 76 77
65 64 65 65 65 65 65 65 65 65 66 66 67 67 68 68 68 69 69 70 70 71 71 71 71 71 71 71 71 71 71 71 71 71 71 71 72 73 74 73 73 74 74 75 75 76 76 76 77 77 76 76 76 76 76 75 75 75 75 76 77 78 79
66 66 66 66 66 66 66 66 66 66 67 68 68 69 70 70 70 71 71 71 72 72 73 73 73 74 74 74 74 74 74 74 74 74 73 73 74 74 75 76 77 78 78 79 80 80 81 81 80 80 79 79 79 79 79 78 78 77 77 77 78 78 78
67 67 67 68 68 68 68 68 68 68 69 70 71 71 72 73 73 73 72 73 73 73 74 75 75 75 76 76 76 76 76 77 77 77 76 77 77 77 77 78 79 80 81 81 82 82 82 82 81 81 81 82 81 81 81 80 80 80 80 80 80 80 80
68 69 69 69 69 69 70 70 71 71 72 73 73 74 74 75 75 75 74 74 74 75 75 76 77 77 77 78 78 78 78 78 78 79 79 79 79 80 80 80 81 81 82 82 82 82 82 83 83 84 84 84 84 83 83 83 83 83 83 83 83 83 83
70 70 70 70 71 72 73 73 74 75 76 76 76 76 76 76 76 76 76 76 76 76 76 77 77 78 79 79 80 80 80 80 80 80 80 81 81 82 82 82 82 82 83 83 83 84 84 84 85 85 85 86 86 86 86 86 85 85 85 85 85 86 86
71 71 71 72 73 74 76 77 77 78 78 78 78 78 78 78 78 78 77 77 76 76 76 77 77 78 79 79 80 81 81 82 82 82 81 81 81 82 82 82 83 83 84 84 84 84 85 85 85 86 86 86 86 86 86 86 86 86 86 86 86 86 87
73 73 73 74 75 77 78 79 80 79 79 79 78 78 78 78 78 78 78 77 76 76 75 76 76 76 77 78 79 80 81 82 82 83 83 82 82 82 82 82 82 83 83 84 84 85 85 85 85 85 85 85 85 85 85 85 85 85 85 85 85 86 86
75 75 76 76 77 78 79 80 80 80 80 79 78 78 77 78 78 78 77 76 76 75 75 75 75 75 75 76 77 77 78 79 80 81 81 82 82 83 82 82 82 82 83 83 84 84 84 84 84 84 84 84 84 83 83 83 83 83 83 83 83 84 84

ECMWFFLT1_250_spd_045.txt.gz
Wind_Speed
48 47 47 48 49 49 48 46 45 45 46 46 45 43 43 43 43 43 43 41 39 36 33 30 28 27 26 25 24 24 24 25 26 27 28 29 30 31 33 34 35 36 37 38 39 40 40 39 40 41 41 42 42 41 38 37 39 41 41 39 37 36 36
53 51 50 50 49 50 49 47 47 48 48 47 44 42 42 43 44 44 43 41 39 37 33 31 28 27 26 25 25 25 24 24 25 25 26 27 28 29 30 31 32 33 34 35 35 36 37 38 41 42 42 42 42 41 40 39 40 42 44 44 41 38 37
57 55 54 52 51 51 50 48 48 49 49 47 44 42 42 43 43 42 40 39 39 37 35 32 30 27 26 25 25 25 25 25 25 25 26 27 27 28 28 29 30 31 32 33 33 34 35 37 41 44 44 44 42 41 42 42 42 43 45 46 44 42 41
60 59 58 56 54 53 52 50 49 49 48 46 44 42 42 41 41 39 38 38 38 37 35 33 32 30 28 27 26 26 26 26 26 26 26 27 28 28 28 29 29 30 31 32 32 33 34 36 39 44 46 46 44 42 42 43 43 44 45 47 47 45 43
62 62 61 58 55 54 52 50 49 48 46 45 43 41 39 38 36 35 36 36 36 36 35 34 33 32 31 30 28 27 27 26 26 26 27 27 28 28 28 28 28 29 30 31 32 32 33 34 37 42 47 49 47 44 43 43 44 45 46 47 48 48 47
60 60 59 56 54 52 50 49 48 46 44 43 41 38 36 34 33 32 33 34 34 34 34 34 34 33 33 32 31 30 29 28 28 27 27 28 28 28 28 28 28 28 29 30 31 32 33 34 35 39 46 51 50 47 45 45 45 46 47 47 47 48 49
57 55 54 53 51 50 49 47 46 45 43 41 38 36 35 33 31 30 30 31 31 32 33 34 34 34 34 34 33 33 32 31 30 29 29 29 29 29 29 29 29 29 29 29 30 31 32 34 35 37 43 50 53 51 47 46 46 47 47 48 48 48 50
53 52 52 51 50 49 48 47 46 45 43 41 38 36 34 33 32 31 31 31 31 31 32 32 33 34 35 35 35 35 34 34 33 32 31 30 30 30 30 30 30 30 30 30 30 30 31 32 34 36 39 45 52 54 51 48 48 49 49 48 48 49 50
48 48 49 50 50 50 49 48 47 46 45 45 43 40 36 35 35 35 34 34 33 33 32 32 33 33 34 35 36 36 36 36 36 35 34 33 33 32 32 32 32 32 31 31 31 31 31 31 32 34 37 41 46 52 54 52 49 49 50 50 48 49 50
46 45 47 49 49 49 49 49 47 47 48 48 46 43 40 39 39 39 39 38 38 36 35 34 34 34 35 35 36 37 38 38 38 37 37 36 36 35 34 34 34 33 33 33 33 33 32 32 32 33 36 38 41 46 52 54 52 50 50 52 51 49 50
49 46 46 48 49 48 47 47 48 49 50 50 47 45 43 43 43 42 42 42 42 42 40 39 38 37 37 38 38 38 38 39 40 40 39 39 38 38 37 37 37 36 36 35 35 35 35 34 33 34 35 37 38 41 44 49 52 51 50 52 54 52 50
52 51 49 49 50 48 46 47 48 50 52 52 49 46 45 45 45 45 45 45 46 46 46 46 44 43 42 41 40 40 39 39 40 41 42 42 41 41 40 40 40 39 39 38 38 37 36 36 36 35 35 37 39 40 41 43 46 50 51 51 54 56 54
51 52 52 52 52 51 51 50 50 51 52 51 48 48 48 48 48 47 46 47 49 50 51 51 49 47 45 44 42 41 40 39 40 40 42 43 43 44 44 43 43 43 42 42 41 40 39 38 38 38 37 38 39 40 41 42 43 45 48 50 52 55 57
51 52 54 56 56 55 55 56 56 55 54 53 51 52 53 52 51 49 49 51 53 54 55 54 53 51 48 46 44 43 42 41 40 40 40 42 43 44 46 46 46 46 45 45 44 43 42 41 41 40 40 40 40 41 42 43 44 44 45 48 50 52 55
56 56 56 57 58 58 57 59 60 59 58 59 59 58 58 58 57 56 57 58 59 59 58 57 55 53 52 49 47 45 44 42 42 41 41 41 42 43 45 47 48 49 48 48 47 46 46 45 44 43 43 43 43 43 43 44 45 46 46 47 48 50 52
59 58 57 57 58 59 60 60 62 62 62 63 64 64 64 63 62 62 64 65 65 62 60 59 57 55 55 53 51 49 47 45 43 42 41 41 41 42 43 45 47 49 50 50 50 50 49 48 48 47 46 46 46 46 46 46 46 47 47 48 48 49 51
59 59 58 58 59 59 60 60 61 63 64 65 67 68 68 66 65 65 67 69 68 64 61 59 59 58 58 57 55 53 53 51 49 47 46 46 46 46 46 46 47 48 50 51 51 52 52 51 51 51 50 50 50 50 50 50 50 50 50 50 50 51 51
57 58 59 60 59 59 60 61 62 63 65 66 68 70 71 71 69 69 70 70 68 65 62 60 59 58 58 59 58 58 57 57 56 54 54 54 54 54 54 54 54 53 52 52 52 52 52 52 53 53 54 53 53 53 53 52 52 52 52 52 53 53 53
56 57 59 60 60 60 61 63 65 66 66 68 69 71 73 73 71 70 69 68 67 63 60 58 57 56 56 56 58 59 60 60 60 59 59 60 60 60 61 61 60 59 58 57 56 54 53 53 53 54 55 56 56 56 56 55 55 55 55 55 55 55 56
55 56 57 57 57 56 57 60 62 64 64 64 64 65 66 67 67 66 66 66 65 62 58 56 54 53 54 54 55 58 60 61 61 60 61 62 63 64 64 63 62 61 60 60 59 58 57 56 56 56 56 56 57 58 58 58 58 58 58 57 58 58 58
54 55 56 55 53 52 53 55 57 57 57 56 56 58 61 62 63 64 63 64 64 61 59 58 54 53 54 54 55 56 58 60 60 61 62 63 65 65 64 63 62 61 60 60 60 60 60 60 60 60 59 58 58 58 59 59 60 60 61 61 61 61 61
54 56 56 55 55 53 53 52 51 51 53 56 57 58 59 60 61 62 62 62 62 59 58 59 58 56 57 57 56 56 58 60 61 62 63 63 63 63 62 61 60 60 59 59 60 61 61 62 62 62 62 62 61 61 60 60 60 61 62 63 63 64 64
55 56 55 54 54 53 51 50 51 54 59 62 62 60 58 58 60 60 58 57 57 55 57 61 62 61 61 60 60 60 61 63 65 64 63 62 61 60 59 59 59 59 58 59 59 60 61 63 63 64 64 64 64 64 63 63 62 62 63 63 65 65 66
56 57 57 57 57 56 57 59 62 65 66 65 63 61 58 57 59 59 59 59 59 60 64 67 67 66 64 62 61 61 59 59 61 62 61 60 59 58 57 58 58 58 58 59 59 60 61 62 63 64 65 66 66 66 66 66 66 65 65 66 66 67 67
60 60 62 62 63 64 66 68 69 69 68 66 64 63 62 62 63 64 65 66 67 69 70 71 70 69 68 67 65 63 60 58 61 63 62 61 59 58 57 57 57 58 59 59 59 60 61 62 63 64 66 67 67 67 68 68 68 68 69 69 69 69 69
63 64 65 66 67 68 69 70 70 69 68 67 66 66 65 66 66 67 68 69 69 70 71 71 70 69 69 69 68 66 64 64 66 67 67 66 64 62 60 59 59 59 60 59 60 60 61 61 62 63 65 66 66 67 68 68 68 69 71 71 71 72 72
66 67 68 69 69 70 70 70 70 70 69 69 68 68 68 68 68 68 68 68 69 69 70 70 69 69 68 68 68 67 66 66 67 68 68 68 67 66 64 63 62 62 62 61 61 62 62 62 62 62 64 65 66 68 69 69 69 69 70 72 74 75 75
68 69 70 71 72 72 71 71 70 70 69 69 69 69 69 69 69 69 69 69 69 69 70 69 69 68 68 67 67 67 67 67 67 68 68 69 68 68 66 66 65 65 64 64 63 63 64 64 64 65 65 66 67 68 68 69 70 70 71 72 74 76 76
69 70 71 72 72 72 71 70 70 69 69 69 69 69 69 70 70 70 70 70 69 69 69 69 69 68 68 67 67 67 67 67 67 68 69 69 69 69 68 68 68 67 67 67 66 66 66 66 66 66 67 67 67 67 67 68 69 70 70 71 72 74 76
69 70 70 71 71 71 70 70 69 69 68 68 68 68 68 69 70 70 70 70 70 70 70 69 69 69 68 68 68 68 68 68 69 69 70 70 70 71 70 70 70 70 70 69 69 68 68 68 68 68 69 69 69 69 69 69 69 69 70 70 71 72 74
67 68 69 70 70 70 70 70 69 69 68 68 68 67 68 68 69 69 70 70 70 70 70 70 70 70 69 69 69 69 69 69 70 71 71 72 72 73 73 73 72 72 72 72 72 72 72 71 71 71 71 72 73 73 72 71 70 70 70 71 72 73 74
64 66 67 67 68 69 69 70 70 70 69 69 69 69 68 68 68 69 69 70 70 70 70 70 70 70 71 70 70 71 71 71 72 73 73 74 74 74 75 75 75 75 75 75 75 75 75 75 75 75 75 75 75 76 76 75 75 74 73 73 73 74 75
65 65 66 66 67 68 69 70 71 71 70 70 70 70 69 69 69 69 70 70 71 71 72 72 72 72 72 72 72 72 73 73 74 75 75 76 76 76 77 77 77 77 77 77 77 78 78 78 78 77 77 77 77 77 78 78 79 79 78 77 77 76 77
67 67 67 67 67 68 68 68 69 70 70 70 70 70 70 70 70 70 71 72 72 73 73 73 74 74 74 74 74 75 75 76 76 77 77 78 78 79 79 79 79 80 79 80 80 80 80 80 80 80 79 79 79 79 79 79 80 80 80 81 80 80 80
69 69 69 68 68 68 67 68 68 69 70 70 70 71 71 71 72 73 73 74 75 75 75 75 75 75 76 76 77 78 78 78 78 79 79 79 80 80 80 81 81 81 82 82 82 82 81 81 81 82 82 81 81 81 80 80 80 80 80 81 81 82 82
72 72 71 71 70 69 69 69 69 70 71 71 72 72 73 74 75 76 77 77 77 77 76 76 76 77 77 78 79 80 80 80 80 80 80 80 80 81 81 81 82 82 82 82 82 82 83 83 83 83 83 82 82 82 81 81 81 81 81 81 81 82 82
75 75 74 73 72 71 71 71 71 72 72 73 74 75 76 77 78 79 79 79 78 78 78 78 78 78 79 80 81 81 81 81 81 81 81 81 81 81 81 81 81 81 81 81 82 82 82 83 83 83 83 82 82 82 81 81 81 81 81 81 82 82 82

ECMWFFLT1_250_spd_048.txt.gz
Wind_Speed
49 50 50 51 53 54 54 53 52 50 49 49 48 48 47 48 48 48 48 48 48 47 45 42 38 36 35 34 32 29 28 25 23 22 22 22 22 23 24 25 26 28 30 32 34 36 39 41 43 44 45 47 49 49 48 46 46 47 46 45 44 39 35
56 55 55 55 57 58 58 57 54 52 51 50 50 49 49 48 48 48 48 48 47 45 43 41 38 35 34 32 30 28 27 26 24 23 22 21 21 22 22 23 23 24 24 26 28 30 32 34 36 38 40 42 44 46 46 44 42 44 44 42 41 38 36
60 61 61 60 61 61 60 58 56 53 52 51 51 50 49 48 48 48 48 46 44 42 40 38 36 34 33 30 28 27 27 26 25 24 22 22 21 21 22 22 22 22 23 23 24 26 27 28 30 31 33 36 38 41 42 41 40 41 42 40 39 38 38
58 60 61 61 61 61 59 58 57 55 54 53 52 51 50 49 48 47 46 44 41 39 37 35 34 33 31 29 27 26 26 26 26 25 24 23 22 21 21 22 22 22 23 23 23 24 25 25 26 27 28 31 34 36 39 41 41 41 42 40 38 39 40
56 57 59 59 60 60 59 58 57 56 55 53 52 51 50 49 48 46 43 40 38 36 34 33 32 31 29 27 26 26 26 26 27 26 25 24 23 22 22 21 22 22 22 23 23 23 24 24 25 25 26 28 31 34 37 41 43 43 42 41 39 39 41
57 58 59 59 59 59 58 57 56 54 53 52 51 51 49 48 46 44 40 36 34 34 33 33 32 30 28 26 25 25 25 26 26 27 27 26 25 24 23 22 22 22 22 22 22 23 23 23 24 24 24 26 29 31 35 40 44 45 44 42 40 40 41
56 57 58 58 58 57 55 54 53 52 51 50 50 49 48 46 43 41 38 34 33 33 33 32 32 30 29 27 25 25 24 24 25 26 27 28 28 27 26 24 23 23 23 23 22 22 23 23 24 24 23 24 26 29 33 37 43 46 47 45 41 41 42
52 53 53 53 53 52 50 49 49 48 47 48 48 47 46 45 43 41 39 36 34 33 32 32 32 31 30 28 26 26 25 25 25 26 27 28 29 30 29 28 27 25 25 24 24 24 24 24 24 24 24 24 25 27 30 34 39 45 48 48 45 43 43
48 50 50 50 49 48 47 47 46 45 45 45 45 45 45 44 44 43 42 40 39 37 36 35 34 32 31 29 28 27 27 27 27 28 28 29 29 30 31 32 31 29 28 27 26 26 25 25 25 26 25 25 25 25 28 31 36 41 46 49 49 47 45
49 49 48 49 49 49 48 46 45 44 43 43 43 43 43 43 44 44 44 43 43 42 41 40 38 36 34 32 30 30 30 31 32 33 33 33 33 33 33 33 33 33 32 30 29 28 27 27 27 27 27 27 27 27 27 29 32 37 41 46 49 49 48
51 51 50 50 50 50 48 46 45 45 44 43 43 42 41 42 42 43 44 44 44 43 43 43 42 40 38 35 33 32 32 33 35 36 37 37 37 36 36 36 35 35 35 34 33 32 30 29 29 29 29 28 29 29 29 29 30 34 37 41 44 47 48
54 55 54 55 55 54 52 48 47 46 46 46 46 44 42 42 43 44 44 45 45 45 45 45 45 44 41 38 36 35 33 34 36 38 40 40 39 38 38 37 37 37 36 36 36 35 34 33 32 31 31 30 30 30 31 31 31 33 35 38 40 42 45
57 58 57 58 59 59 58 55 51 49 48 49 48 47 46 45 45 46 46 46 47 47 48 48 48 47 44 42 40 39 37 37 39 41 43 43 42 40 38 38 38 38 38 38 38 38 37 37 36 35 34 33 33 32 32 33 33 33 35 37 39 41 42
59 60 60 60 60 60 60 58 55 52 51 51 51 50 50 49 49 50 50 49 49 49 49 49 49 49 47 45 44 44 44 44 45 46 46 47 46 44 41 39 39 39 40 39 39 39 39 39 39 39 38 38 37 36 35 35 36 36 37 38 40 41 42
62 61 61 62 61 59 58 58 57 55 55 54 54 53 53 53 54 54 54 53 52 52 51 52 52 52 51 50 49 49 50 50 51 51 51 50 50 48 45 42 41 40 41 41 40 39 39 39 40 40 41 41 41 41 40 39 38 38 39 39 40 42 43
67 66 65 66 66 64 62 61 60 59 59 59 59 59 59 58 58 58 57 56 55 55 55 55 55 55 55 55 54 54 54 54 54 55 55 54 52 51 49 47 44 42 41 41 40 39 38 38 38 39 40 41 43 43 44 44 42 41 41 42 42 43 44
70 70 69 69 69 69 67 65 64 63 63 63 64 64 63 62 61 61 60 59 58 58 58 59 58 58 58 58 58 57 56 56 57 57 58 56 54 53 52 50 48 47 45 43 42 41 40 40 39 39 39 41 43 44 45 46 47 46 45 45 45 45 46
69 69 69 68 68 68 67 66 65 64 64 64 64 63 62 62 62 62 62 61 60 60 60 60 60 59 59 58 58 58 58 59 59 58 57 55 54 54 53 52 51 50 50 49 48 48 48 47 47 46 46 47 47 47 47 48 49 49 49 49 49 48 48
67 66 66 66 66 65 65 65 64 64 64 64 64 63 62 61 61 61 62 61 61 61 61 61 61 61 60 59 58 57 58 58 57 56 55 54 53 52 52 51 51 51 52 52 53 53 54 54 55 54 54 53 53 52 51 50 50 51 51 52 53 53 52
64 63 63 63 62 62 62 61 61 61 62 62 63 63 62 61 61 60 60 60 60 60 60 60 61 61 60 58 56 55 55 55 55 55 54 52 51 50 50 50 50 51 52 54 55 56 57 57 58 58 57 57 56 55 54 53 53 53 53 53 54 55 56
62 61 60 60 59 59 59 58 58 58 58 58 59 59 59 60 60 59 59 58 58 58 57 57 57 58 58 56 55 55 54 54 56 55 53 50 48 48 48 49 50 51 53 55 56 57 57 58 58 59 59 58 58 57 56 55 55 55 56 56 56 56 56
61 60 59 58 56 56 55 54 55 55 55 54 54 55 55 57 57 58 57 56 56 56 55 55 54 56 58 57 56 55 54 53 54 53 50 48 47 47 48 49 51 52 54 55 56 57 58 59 59 59 59 58 57 56 56 56 56 57 58 58 59 59 58
60 59 59 58 57 56 55 54 55 56 56 55 54 53 54 55 56 57 57 57 56 55 54 54 54 55 58 60 60 58 54 52 53 52 50 50 50 50 50 50 51 53 54 55 56 56 56 57 57 57 57 56 56 55 55 55 56 57 58 60 61 61 61
60 59 59 59 58 58 58 57 57 58 58 58 57 55 55 57 58 58 58 57 56 55 54 55 56 58 59 61 62 62 58 55 56 56 55 54 53 51 51 51 53 54 54 55 54 53 53 53 53 53 53 54 54 55 55 55 56 57 58 60 62 62 63
62 61 61 60 60 60 60 60 60 60 60 60 59 58 58 58 59 59 59 58 58 58 59 59 60 62 63 62 62 63 62 60 59 59 59 59 58 55 54 54 55 55 55 55 54 53 53 53 53 53 53 54 54 55 55 56 56 57 58 60 61 61 62
64 64 64 63 63 63 63 63 63 63 63 62 62 61 60 60 61 61 62 62 63 64 64 63 63 63 64 64 63 63 63 62 62 62 62 63 63 61 59 58 58 58 57 57 56 55 54 53 53 54 55 56 57 57 58 58 58 58 60 61 60 60 61
66 66 66 66 65 65 65 65 65 66 65 65 65 64 64 65 65 66 66 67 67 68 68 66 65 63 63 63 64 64 65 65 65 66 65 65 64 64 62 61 60 60 60 59 59 58 57 55 55 54 55 56 57 58 59 60 60 61 62 62 61 61 62
68 68 67 67 66 66 66 66 67 67 68 68 68 68 68 69 69 69 69 69 69 69 69 68 67 65 64 64 64 65 66 67 68 68 68 67 66 65 64 63 62 62 61 61 60 60 60 59 58 57 57 57 57 58 59 60 62 63 64 64 64 64 63
69 69 69 68 68 68 68 68 69 69 70 71 71 71 71 71 71 71 70 70 70 70 69 69 68 67 66 66 66 66 67 68 69 69 69 68 67 67 66 65 65 64 64 63 63 63 62 62 61 61 60 59 59 59 59 60 62 63 65 66 67 67 67
68 68 68 68 68 69 70 70 71 72 72 73 73 74 74 73 73 72 72 71 71 71 70 69 68 67 67 67 67 67 67 68 69 69 69 69 69 68 67 67 67 66 66 66 65 65 65 65 65 64 63 63 62 62 62 62 63 64 65 66 67 68 69
65 65 66 67 68 69 71 72 73 74 74 75 75 75 75 74 74 73 72 72 71 70 70 68 67 67 66 66 66 67 68 68 69 70 70 70 70 69 69 69 69 68 68 68 68 68 68 68 68 67 67 67 66 66 65 65 65 66 66 67 68 69 70
62 63 64 65 66 67 69 70 71 72 73 73 74 74 73 73 73 72 71 70 69 68 68 67 66 65 64 64 65 66 67 68 69 70 71 71 71 71 71 71 71 71 71 71 71 71 71 71 71 71 71 70 70 69 69 69 68 69 69 69 70 70 71
62 62 64 64 65 65 67 68 68 69 69 69 70 70 70 70 70 69 69 68 67 67 66 65 64 64 63 64 64 65 66 67 68 70 71 71 72 72 72 73 73 73 73 73 74 74 74 74 74 74 74 74 74 73 73 72 72 71 71 71 71 72 73
63 63 64 65 65 65 66 67 67 67 66 67 67 67 67 67 67 67 67 67 67 67 67 66 65 65 64 64 65 65 66 67 68 69 70 71 72 73 73 74 74 74 75 75 76 77 77 77 77 77 77 78 78 78 77 77 76 75 74 74 74 74 74
67 66 66 67 67 66 67 67 68 67 66 65 65 66 66 66 66 66 66 66 67 67 68 68 68 67 66 65 65 65 66 67 68 69 70 70 71 72 74 75 75 76 77 77 78 78 78 79 79 79 79 80 80 80 80 79 79 78 78 77 77 77 76
72 71 70 70 70 69 69 69 69 69 68 67 66 66 67 67 67 67 67 67 67 68 68 69 68 68 68 67 67 67 68 68 69 70 71 71 72 73 75 76 77 78 78 79 79 79 80 80 80 80 80 81 81 81 80 80 80 79 79 79 78 78 78
76 75 74 74 73 73 72 71 71 71 71 71 70 69 69 69 69 69 69 69 69 70 70 70 69 69 69 69 69 70 70 71 71 72 73 74 75 77 78 79 79 80 80 80 80 80 80 81 81 81 80 80 80 79 79 78 78 78 78 77 77 77 77